ITY674 LIRF-SBGR

Flight info

Callsign ITY674
Flight time N/A
Altitude 19000
Route SOSAK DCT ESINO Z924 SUPUX/N0492F310 Z924 RIPAL DCT SOTAX T100 GOSOS/N0483F330 T100 TAVSI L82 RUNAX UL82 IBALU UN857 VEDOD A857 TERTO DCT ELNAN DCT GOMSU DCT BETAN DCT KOPUD DCT LALTO DCT REMGI N729 DEREV/N0483F340 N857 GUNET UN857 DELAX/N0487F360 UN857 ERETU UM661 TELIS/N0477F380 UM661 PUDON DCT ESMOX UZ73 DOPRU DCT EDSAS/N0456F240 Z18 RALYT DCT UGSEV DCT VUNOX DCT GR259
Aircraft A339/H-SADE1E2E3GHIJ3J5M1P2RWXY/LB2D1

Departure

Time 2026-05-07 07:49
Airport Rome–Fiumicino Leonardo da Vinci International Airport (LIRF)

Arrival

Time N/A
Airport São Paulo/Guarulhos–Governor André Franco Montoro International Airport (SBGR)
Time Latitude Longitude Altitude Speed Heading
2026-05-07 07:17 41.79807 12.24845 31 ft 0 kts 250°
2026-05-07 07:33 41.79809 12.24854 32 ft 2 kts 250°
2026-05-07 07:34 41.79814 12.24873 32 ft 2 kts 258°
2026-05-07 07:34 41.79814 12.24893 32 ft 2 kts 289°
2026-05-07 07:34 41.79807 12.24911 32 ft 2 kts 314°
2026-05-07 07:34 41.79796 12.24923 32 ft 1 kts 337°
2026-05-07 07:35 41.79790 12.24925 32 ft 0 kts 340°
2026-05-07 07:40 41.79794 12.24923 32 ft 1 kts 340°
2026-05-07 07:40 41.79817 12.24912 32 ft 5 kts 340°
2026-05-07 07:40 41.79861 12.24891 32 ft 8 kts 340°
2026-05-07 07:40 41.79923 12.24861 32 ft 10 kts 340°
2026-05-07 07:41 41.79999 12.24822 32 ft 12 kts 338°
2026-05-07 07:41 41.80068 12.24753 32 ft 13 kts 278°
2026-05-07 07:41 41.80042 12.24625 32 ft 15 kts 250°
2026-05-07 07:41 41.80002 12.24487 32 ft 16 kts 248°
2026-05-07 07:42 41.79959 12.24338 31 ft 17 kts 249°
2026-05-07 07:42 41.79922 12.24180 32 ft 16 kts 261°
2026-05-07 07:42 41.79935 12.24076 32 ft 5 kts 313°
2026-05-07 07:42 41.79942 12.24051 32 ft 2 kts 272°
2026-05-07 07:43 41.79927 12.24005 32 ft 7 kts 234°
2026-05-07 07:43 41.79889 12.23921 32 ft 15 kts 243°
2026-05-07 07:43 41.79849 12.23779 32 ft 15 kts 255°
2026-05-07 07:43 41.79893 12.23672 32 ft 14 kts 337°
2026-05-07 07:44 41.79987 12.23629 32 ft 14 kts 342°
2026-05-07 07:44 41.80084 12.23589 32 ft 15 kts 342°
2026-05-07 07:44 41.80190 12.23545 32 ft 16 kts 343°
2026-05-07 07:44 41.80323 12.23490 32 ft 27 kts 343°
2026-05-07 07:45 41.80499 12.23416 32 ft 25 kts 342°
2026-05-07 07:45 41.80663 12.23346 32 ft 23 kts 343°
2026-05-07 07:45 41.80816 12.23282 32 ft 22 kts 342°
2026-05-07 07:45 41.80960 12.23221 32 ft 21 kts 342°
2026-05-07 07:46 41.81092 12.23169 32 ft 14 kts 343°
2026-05-07 07:46 41.81182 12.23130 32 ft 13 kts 341°
2026-05-07 07:46 41.81276 12.23088 32 ft 14 kts 341°
2026-05-07 07:46 41.81379 12.23045 32 ft 17 kts 343°
2026-05-07 07:47 41.81494 12.22989 32 ft 17 kts 318°
2026-05-07 07:47 41.81554 12.22848 32 ft 17 kts 295°
2026-05-07 07:47 41.81558 12.22715 32 ft 12 kts 252°
2026-05-07 07:47 41.81518 12.22655 32 ft 6 kts 168°
2026-05-07 07:48 41.81488 12.22672 32 ft 1 kts 162°
2026-05-07 07:48 41.81458 12.22685 32 ft 23 kts 162°
2026-05-07 07:48 41.81092 12.22837 32 ft 84 kts 162°
2026-05-07 07:49 41.80358 12.23146 32 ft 135 kts 162°
2026-05-07 07:49 41.79322 12.23578 33 ft 178 kts 162°
2026-05-07 07:49 41.78063 12.24110 352 ft 190 kts 163°
2026-05-07 07:49 41.76846 12.24523 1121 ft 176 kts 169°
2026-05-07 07:50 41.75669 12.24293 1631 ft 178 kts 214°
2026-05-07 07:50 41.74681 12.23266 1911 ft 186 kts 218°
2026-05-07 07:50 41.73647 12.22114 2121 ft 197 kts 218°
2026-05-07 07:50 41.72560 12.20929 2344 ft 208 kts 217°
2026-05-07 07:51 41.71403 12.19696 2565 ft 220 kts 217°
2026-05-07 07:51 41.70182 12.18374 2801 ft 233 kts 225°
2026-05-07 07:51 41.69355 12.16448 3025 ft 247 kts 259°
2026-05-07 07:51 41.69166 12.14125 3283 ft 260 kts 264°
2026-05-07 07:52 41.68747 12.11723 3538 ft 272 kts 241°
2026-05-07 07:52 41.67548 12.09800 4034 ft 273 kts 218°
2026-05-07 07:52 41.66029 12.08299 4633 ft 273 kts 215°
2026-05-07 07:52 41.64483 12.06820 5187 ft 274 kts 216°
2026-05-07 07:53 41.62957 12.05286 5715 ft 276 kts 218°
2026-05-07 07:53 41.61446 12.03709 6253 ft 276 kts 218°
2026-05-07 07:53 41.59936 12.02126 6778 ft 277 kts 219°
2026-05-07 07:53 41.58433 12.00547 7278 ft 279 kts 219°
2026-05-07 07:54 41.56900 11.98931 7785 ft 280 kts 219°
2026-05-07 07:54 41.55382 11.97331 8278 ft 282 kts 219°
2026-05-07 07:54 41.53829 11.95692 8781 ft 283 kts 220°
2026-05-07 07:54 41.52293 11.94069 9277 ft 285 kts 220°
2026-05-07 07:55 41.50744 11.92435 9775 ft 286 kts 220°
2026-05-07 07:55 41.49184 11.90787 10239 ft 288 kts 220°
2026-05-07 07:55 41.47595 11.89106 10466 ft 299 kts 220°
2026-05-07 07:55 41.45923 11.87341 10677 ft 311 kts 220°
2026-05-07 07:56 41.44192 11.85518 10886 ft 322 kts 220°
2026-05-07 07:56 41.42406 11.83637 11090 ft 333 kts 220°
2026-05-07 07:56 41.40560 11.81687 11289 ft 344 kts 221°
2026-05-07 07:56 41.38892 11.79340 11477 ft 354 kts 234°
2026-05-07 07:57 41.37651 11.76495 11737 ft 362 kts 246°
2026-05-07 07:57 41.36761 11.73348 12178 ft 365 kts 250°
2026-05-07 07:57 41.35912 11.70196 12668 ft 366 kts 250°
2026-05-07 07:57 41.35058 11.67020 13138 ft 368 kts 250°
2026-05-07 07:58 41.34187 11.63798 13607 ft 370 kts 250°
2026-05-07 07:58 41.33318 11.60589 14085 ft 371 kts 250°
2026-05-07 07:58 41.32436 11.57343 14535 ft 373 kts 250°
2026-05-07 07:58 41.31548 11.54089 14982 ft 376 kts 249°
2026-05-07 07:59 41.30652 11.50804 15449 ft 377 kts 249°
2026-05-07 07:59 41.29767 11.47567 15919 ft 378 kts 249°
2026-05-07 07:59 41.28862 11.44261 16367 ft 380 kts 249°
2026-05-07 07:59 41.27963 11.40991 16759 ft 382 kts 249°
2026-05-07 08:00 41.27052 11.37672 17179 ft 384 kts 249°
2026-05-07 08:00 41.26134 11.34337 17619 ft 386 kts 249°
2026-05-07 08:00 41.25206 11.30973 18020 ft 388 kts 249°
2026-05-07 08:00 41.24275 11.27596 18421 ft 391 kts 249°
2026-05-07 08:01 41.23349 11.24241 18821 ft 392 kts 249°
2026-05-07 08:01 41.22398 11.20801 18978 ft 394 kts 249°
2026-05-07 08:01 41.21454 11.17390 19004 ft 395 kts 249°
2026-05-07 08:01 41.20497 11.13945 19345 ft 397 kts 249°
2026-05-07 08:02 41.19545 11.10515 19825 ft 397 kts 249°
2026-05-07 08:02 41.18589 11.07073 20227 ft 398 kts 249°
2026-05-07 08:02 41.17631 11.03636 20629 ft 399 kts 249°
2026-05-07 08:02 41.16675 11.00200 20997 ft 401 kts 249°
2026-05-07 08:03 41.15705 10.96727 21338 ft 403 kts 249°
2026-05-07 08:03 41.14728 10.93234 21674 ft 405 kts 249°
2026-05-07 08:03 41.13754 10.89754 22021 ft 406 kts 248°
2026-05-07 08:03 41.12770 10.86244 22353 ft 408 kts 249°
2026-05-07 08:04 41.11786 10.82742 22668 ft 410 kts 248°
2026-05-07 08:04 41.10793 10.79208 22976 ft 411 kts 249°
2026-05-07 08:04 41.09781 10.75618 23259 ft 413 kts 249°
2026-05-07 08:04 41.08782 10.72075 23540 ft 415 kts 249°
2026-05-07 08:05 41.07769 10.68482 23873 ft 416 kts 249°
2026-05-07 08:05 41.06753 10.64893 24199 ft 417 kts 249°
2026-05-07 08:05 41.05743 10.61318 24514 ft 417 kts 249°
2026-05-07 08:05 41.04724 10.57724 24808 ft 418 kts 249°
2026-05-07 08:06 41.03703 10.54122 25120 ft 419 kts 249°
2026-05-07 08:06 41.02674 10.50505 25405 ft 420 kts 249°
2026-05-07 08:06 41.01654 10.46911 25714 ft 419 kts 249°
2026-05-07 08:06 41.00626 10.43318 25978 ft 420 kts 249°
2026-05-07 08:07 40.99601 10.39725 26261 ft 420 kts 249°
2026-05-07 08:07 40.98561 10.36083 26545 ft 420 kts 249°
2026-05-07 08:07 40.97537 10.32514 26793 ft 421 kts 248°
2026-05-07 08:07 40.96494 10.28887 27065 ft 421 kts 249°
2026-05-07 08:08 40.95451 10.25250 27338 ft 421 kts 249°
2026-05-07 08:08 40.94413 10.21647 27615 ft 421 kts 249°
2026-05-07 08:08 40.93368 10.18038 27845 ft 422 kts 249°
2026-05-07 08:08 40.92327 10.14416 28108 ft 422 kts 249°
2026-05-07 08:09 40.91285 10.10813 28322 ft 423 kts 249°
2026-05-07 08:09 40.90240 10.07197 28579 ft 422 kts 249°
2026-05-07 08:09 40.89205 10.03617 28927 ft 420 kts 249°
2026-05-07 08:09 40.88169 10.00041 29301 ft 417 kts 249°
2026-05-07 08:10 40.87139 9.96494 29661 ft 414 kts 249°
2026-05-07 08:10 40.86118 9.92989 30086 ft 409 kts 249°
2026-05-07 08:10 40.85096 9.89475 30427 ft 407 kts 249°
2026-05-07 08:10 40.84084 9.86001 30681 ft 405 kts 250°
2026-05-07 08:11 40.83086 9.82568 30920 ft 405 kts 249°
2026-05-07 08:11 40.81050 9.75614 30980 ft 405 kts 249°
2026-05-07 08:12 40.79026 9.68722 30989 ft 404 kts 249°
2026-05-07 08:12 40.76995 9.61845 30992 ft 405 kts 249°
2026-05-07 08:13 40.74972 9.54963 30995 ft 404 kts 249°
2026-05-07 08:13 40.72952 9.48080 30997 ft 403 kts 250°
2026-05-07 08:14 40.71041 9.41153 30995 ft 404 kts 251°
2026-05-07 08:14 40.69246 9.34173 31002 ft 404 kts 250°
2026-05-07 08:15 40.67443 9.27180 31002 ft 403 kts 250°
2026-05-07 08:15 40.65647 9.20228 30997 ft 403 kts 251°
2026-05-07 08:16 40.63856 9.13283 30998 ft 403 kts 251°
2026-05-07 08:16 40.62047 9.06292 30992 ft 404 kts 251°
2026-05-07 08:17 40.60240 8.99335 30996 ft 404 kts 250°
2026-05-07 08:17 40.58432 8.92393 30991 ft 403 kts 250°
2026-05-07 08:18 40.56604 8.85391 30995 ft 405 kts 250°
2026-05-07 08:18 40.54778 8.78418 30994 ft 404 kts 251°
2026-05-07 08:19 40.52968 8.71488 30993 ft 404 kts 250°
2026-05-07 08:19 40.51128 8.64506 30993 ft 405 kts 251°
2026-05-07 08:20 40.49288 8.57510 30990 ft 406 kts 250°
2026-05-07 08:20 40.47454 8.50567 30992 ft 407 kts 250°
2026-05-07 08:21 40.45831 8.43442 30988 ft 406 kts 255°
2026-05-07 08:21 40.44697 8.36214 30987 ft 407 kts 258°
2026-05-07 08:22 40.44035 8.28793 30983 ft 409 kts 263°
2026-05-07 08:22 40.43634 8.21380 30981 ft 411 kts 262°
2026-05-07 08:23 40.43220 8.13945 30978 ft 410 kts 263°
2026-05-07 08:23 40.42807 8.06501 30976 ft 409 kts 263°
2026-05-07 08:24 40.42289 7.99106 30975 ft 408 kts 259°
2026-05-07 08:24 40.41393 7.91810 30973 ft 407 kts 258°
2026-05-07 08:25 40.40478 7.84468 30969 ft 407 kts 258°
2026-05-07 08:25 40.39553 7.77159 30974 ft 409 kts 258°
2026-05-07 08:26 40.38152 7.66162 30968 ft 410 kts 258°
2026-05-07 08:26 40.37208 7.58848 30974 ft 407 kts 258°
2026-05-07 08:27 40.36271 7.51549 30970 ft 410 kts 257°
2026-05-07 08:27 40.35313 7.44168 30974 ft 409 kts 257°
2026-05-07 08:28 40.34355 7.36871 30967 ft 408 kts 258°
2026-05-07 08:28 40.33401 7.29585 30970 ft 408 kts 257°
2026-05-07 08:29 40.32436 7.22277 30967 ft 408 kts 257°
2026-05-07 08:29 40.31470 7.15003 30977 ft 408 kts 257°
2026-05-07 08:30 40.30490 7.07658 30969 ft 408 kts 257°
2026-05-07 08:30 40.29514 7.00368 30965 ft 407 kts 257°
2026-05-07 08:31 40.28534 6.93085 30974 ft 408 kts 258°
2026-05-07 08:31 40.27560 6.85821 30961 ft 409 kts 257°
2026-05-07 08:32 40.26560 6.78496 30977 ft 410 kts 258°
2026-05-07 08:32 40.25564 6.71201 30972 ft 407 kts 257°
2026-05-07 08:33 40.24566 6.63919 30974 ft 408 kts 257°
2026-05-07 08:33 40.23562 6.56613 30967 ft 410 kts 257°
2026-05-07 08:34 40.22549 6.49309 30973 ft 409 kts 257°
2026-05-07 08:34 40.21529 6.41993 30978 ft 411 kts 256°
2026-05-07 08:35 40.20502 6.34678 30965 ft 409 kts 257°
2026-05-07 08:35 40.19470 6.27330 30982 ft 412 kts 256°
2026-05-07 08:36 40.18439 6.20013 30965 ft 412 kts 256°
2026-05-07 08:36 40.17396 6.12644 30965 ft 412 kts 256°
2026-05-07 08:37 40.16349 6.05289 30970 ft 412 kts 255°
2026-05-07 08:37 40.15301 5.98000 30973 ft 412 kts 255°
2026-05-07 08:38 40.14244 5.90648 30967 ft 412 kts 256°
2026-05-07 08:38 40.13186 5.83270 30965 ft 413 kts 256°
2026-05-07 08:39 40.12151 5.75911 30957 ft 414 kts 257°
2026-05-07 08:39 40.11114 5.68557 30967 ft 412 kts 256°
2026-05-07 08:40 40.10072 5.61217 30966 ft 415 kts 257°
2026-05-07 08:40 40.09020 5.53821 30967 ft 414 kts 256°
2026-05-07 08:41 40.07961 5.46444 30964 ft 416 kts 257°
2026-05-07 08:41 40.06889 5.39010 30965 ft 417 kts 256°
2026-05-07 08:42 40.05819 5.31621 30968 ft 416 kts 256°
2026-05-07 08:42 40.04746 5.24207 30966 ft 417 kts 256°
2026-05-07 08:43 40.03664 5.16805 30965 ft 419 kts 256°
2026-05-07 08:43 40.02578 5.09389 30962 ft 417 kts 256°
2026-05-07 08:44 40.01474 5.01928 30961 ft 418 kts 256°
2026-05-07 08:44 40.00376 4.94494 30964 ft 419 kts 257°
2026-05-07 08:45 39.98728 4.87302 30967 ft 415 kts 243°
2026-05-07 08:45 39.95444 4.81149 30975 ft 417 kts 227°
2026-05-07 08:46 39.90880 4.76578 30981 ft 420 kts 212°
2026-05-07 08:46 39.85317 4.73986 30980 ft 429 kts 198°
2026-05-07 08:47 39.79504 4.72335 30966 ft 429 kts 197°
2026-05-07 08:47 39.73680 4.70740 30965 ft 426 kts 197°
2026-05-07 08:48 39.67863 4.69179 30957 ft 428 kts 197°
2026-05-07 08:48 39.62262 4.66923 30961 ft 421 kts 208°
2026-05-07 08:49 39.57268 4.63120 30962 ft 416 kts 220°
2026-05-07 08:49 39.53085 4.58040 30964 ft 412 kts 230°
2026-05-07 08:50 39.49428 4.52361 30961 ft 412 kts 231°
2026-05-07 08:50 39.45799 4.46688 30961 ft 410 kts 231°
2026-05-07 08:51 39.42151 4.40978 30961 ft 411 kts 231°
2026-05-07 08:51 39.38537 4.35315 30958 ft 411 kts 230°
2026-05-07 08:52 39.34893 4.29618 30952 ft 410 kts 230°
2026-05-07 08:52 39.31285 4.23982 30948 ft 408 kts 230°
2026-05-07 08:53 39.27678 4.18356 30949 ft 408 kts 230°
2026-05-07 08:53 39.24063 4.12725 30951 ft 409 kts 230°
2026-05-07 08:54 39.20444 4.07107 30947 ft 408 kts 230°
2026-05-07 08:54 39.16807 4.01469 30948 ft 409 kts 230°
2026-05-07 08:55 39.13174 3.95854 30940 ft 408 kts 230°
2026-05-07 08:55 39.09527 3.90226 30948 ft 410 kts 230°
2026-05-07 08:56 39.05905 3.84641 30944 ft 409 kts 231°
2026-05-07 08:56 39.02252 3.79015 30937 ft 409 kts 229°
2026-05-07 08:57 38.98620 3.73436 30936 ft 409 kts 230°
2026-05-07 08:57 38.94963 3.67826 30938 ft 411 kts 230°
2026-05-07 08:58 38.91302 3.62224 30935 ft 411 kts 230°
2026-05-07 08:58 38.87634 3.56615 30930 ft 412 kts 230°
2026-05-07 08:59 38.83949 3.50995 30924 ft 411 kts 230°
2026-05-07 08:59 38.80272 3.45384 30925 ft 411 kts 230°
2026-05-07 09:00 38.76587 3.39787 30913 ft 412 kts 230°
2026-05-07 09:00 38.72908 3.34192 30913 ft 412 kts 229°
2026-05-07 09:01 38.69232 3.28625 30917 ft 412 kts 229°
2026-05-07 09:01 38.65530 3.23024 30917 ft 412 kts 230°
2026-05-07 09:02 38.61831 3.17436 30914 ft 414 kts 229°
2026-05-07 09:02 38.58123 3.11847 30916 ft 413 kts 229°
2026-05-07 09:03 38.54411 3.06271 30918 ft 411 kts 229°
2026-05-07 09:03 38.50699 3.00702 30927 ft 411 kts 229°
2026-05-07 09:04 38.47019 2.95184 30923 ft 412 kts 229°
2026-05-07 09:04 38.43313 2.89645 30922 ft 411 kts 229°
2026-05-07 09:05 38.39593 2.84085 30923 ft 413 kts 229°
2026-05-07 09:05 38.35863 2.78523 30924 ft 412 kts 229°
2026-05-07 09:06 38.32156 2.73010 30923 ft 412 kts 229°
2026-05-07 09:06 38.28439 2.67483 30925 ft 413 kts 229°
2026-05-07 09:07 38.24691 2.61913 30921 ft 416 kts 229°
2026-05-07 09:07 38.20923 2.56309 30917 ft 416 kts 231°
2026-05-07 09:08 38.17456 2.50440 30917 ft 418 kts 235°
2026-05-07 09:08 38.14403 2.44179 30916 ft 419 kts 239°
2026-05-07 09:09 38.11710 2.37580 30906 ft 421 kts 241°
2026-05-07 09:09 38.09059 2.30972 30915 ft 421 kts 240°
2026-05-07 09:10 38.06406 2.24352 30907 ft 422 kts 240°
2026-05-07 09:10 38.03753 2.17746 30904 ft 424 kts 240°
2026-05-07 09:11 38.01090 2.11114 30908 ft 424 kts 240°
2026-05-07 09:11 37.98414 2.04470 30895 ft 423 kts 240°
2026-05-07 09:12 37.95739 1.97836 30902 ft 425 kts 240°
2026-05-07 09:12 37.93055 1.91189 30900 ft 424 kts 240°
2026-05-07 09:13 37.90380 1.84580 30897 ft 423 kts 239°
2026-05-07 09:13 37.87685 1.77944 30894 ft 422 kts 239°
2026-05-07 09:14 37.85001 1.71338 30900 ft 423 kts 240°
2026-05-07 09:14 37.82319 1.64750 30900 ft 421 kts 239°
2026-05-07 09:15 37.79646 1.58198 30895 ft 420 kts 239°
2026-05-07 09:15 37.76961 1.51634 30898 ft 421 kts 239°
2026-05-07 09:16 37.74273 1.45085 30901 ft 420 kts 239°
2026-05-07 09:16 37.71598 1.38591 30897 ft 420 kts 240°
2026-05-07 09:17 37.68892 1.32032 30904 ft 419 kts 239°
2026-05-07 09:17 37.66206 1.25530 30903 ft 418 kts 239°
2026-05-07 09:18 37.63528 1.19061 30902 ft 419 kts 239°
2026-05-07 09:18 37.60820 1.12531 30902 ft 419 kts 239°
2026-05-07 09:19 37.58129 1.06047 30900 ft 419 kts 239°
2026-05-07 09:19 37.55424 0.99557 30904 ft 420 kts 239°
2026-05-07 09:20 37.52700 0.93020 30901 ft 421 kts 239°
2026-05-07 09:20 37.49985 0.86522 30901 ft 420 kts 239°
2026-05-07 09:21 37.47258 0.80021 30904 ft 421 kts 239°
2026-05-07 09:21 37.44523 0.73513 30905 ft 422 kts 239°
2026-05-07 09:22 37.41798 0.67034 30903 ft 420 kts 239°
2026-05-07 09:22 37.39074 0.60575 30906 ft 421 kts 239°
2026-05-07 09:23 37.36326 0.54074 30903 ft 420 kts 239°
2026-05-07 09:23 37.33591 0.47613 30902 ft 420 kts 238°
2026-05-07 09:24 37.30855 0.41163 30903 ft 420 kts 238°
2026-05-07 09:24 37.28123 0.34736 30900 ft 419 kts 238°
2026-05-07 09:25 37.25371 0.28270 30904 ft 419 kts 238°
2026-05-07 09:25 37.22628 0.21847 30903 ft 419 kts 238°
2026-05-07 09:26 37.19868 0.15385 30901 ft 420 kts 238°
2026-05-07 09:26 37.17114 0.08959 30901 ft 420 kts 238°
2026-05-07 09:27 37.14346 0.02504 30906 ft 421 kts 238°
2026-05-07 09:28 37.10179 -0.07179 30907 ft 421 kts 237°
2026-05-07 09:28 37.07404 -0.13603 30900 ft 422 kts 238°
2026-05-07 09:29 37.04612 -0.20059 30915 ft 421 kts 238°
2026-05-07 09:29 37.01826 -0.26490 30910 ft 421 kts 238°
2026-05-07 09:30 36.99043 -0.32902 30914 ft 421 kts 238°
2026-05-07 09:30 36.96264 -0.39298 30909 ft 421 kts 238°
2026-05-07 09:31 36.93457 -0.45742 30909 ft 423 kts 238°
2026-05-07 09:31 36.90651 -0.52173 30900 ft 422 kts 238°
2026-05-07 09:32 36.87844 -0.58592 30895 ft 423 kts 238°
2026-05-07 09:32 36.85012 -0.65054 30907 ft 424 kts 238°
2026-05-07 09:33 36.82198 -0.71463 30903 ft 423 kts 238°
2026-05-07 09:33 36.79374 -0.77884 30903 ft 425 kts 238°
2026-05-07 09:34 36.76530 -0.84345 30896 ft 425 kts 238°
2026-05-07 09:34 36.73677 -0.90804 30896 ft 425 kts 238°
2026-05-07 09:35 36.70813 -0.97277 30904 ft 426 kts 238°
2026-05-07 09:35 36.67965 -1.03709 30903 ft 427 kts 238°
2026-05-07 09:36 36.65102 -1.10156 30896 ft 427 kts 238°
2026-05-07 09:36 36.62233 -1.16626 30901 ft 428 kts 239°
2026-05-07 09:37 36.59681 -1.23349 30899 ft 432 kts 244°
2026-05-07 09:37 36.57601 -1.30387 30897 ft 434 kts 248°
2026-05-07 09:38 36.55660 -1.37440 30904 ft 434 kts 247°
2026-05-07 09:38 36.53708 -1.44531 30908 ft 433 kts 248°
2026-05-07 09:39 36.51760 -1.51604 30904 ft 434 kts 248°
2026-05-07 09:39 36.49809 -1.58670 30907 ft 433 kts 248°
2026-05-07 09:40 36.47861 -1.65712 30907 ft 433 kts 247°
2026-05-07 09:40 36.45892 -1.72801 30912 ft 434 kts 248°
2026-05-07 09:41 36.43937 -1.79831 30911 ft 433 kts 247°
2026-05-07 09:41 36.41960 -1.86916 30912 ft 433 kts 248°
2026-05-07 09:42 36.39990 -1.93964 30912 ft 433 kts 248°
2026-05-07 09:42 36.38013 -2.01004 30910 ft 433 kts 248°
2026-05-07 09:43 36.36262 -2.08103 30905 ft 435 kts 252°
2026-05-07 09:43 36.34832 -2.15361 30908 ft 433 kts 253°
2026-05-07 09:44 36.33410 -2.22612 30906 ft 434 kts 253°
2026-05-07 09:44 36.31989 -2.29839 30908 ft 433 kts 254°
2026-05-07 09:45 36.30561 -2.37096 30914 ft 433 kts 254°
2026-05-07 09:45 36.29139 -2.44280 30915 ft 432 kts 254°
2026-05-07 09:46 36.27707 -2.51510 30919 ft 433 kts 254°
2026-05-07 09:46 36.26269 -2.58737 30920 ft 433 kts 254°
2026-05-07 09:47 36.24824 -2.65962 30920 ft 432 kts 254°
2026-05-07 09:47 36.23386 -2.73141 30918 ft 432 kts 254°
2026-05-07 09:48 36.21932 -2.80373 30919 ft 432 kts 255°
2026-05-07 09:48 36.20718 -2.87648 30922 ft 433 kts 259°
2026-05-07 09:49 36.20051 -2.95036 30918 ft 433 kts 264°
2026-05-07 09:49 36.19622 -3.02461 30920 ft 433 kts 264°
2026-05-07 09:50 36.19196 -3.09840 30924 ft 434 kts 264°
2026-05-07 09:50 36.18762 -3.17286 30918 ft 433 kts 265°
2026-05-07 09:51 36.18327 -3.24706 30922 ft 433 kts 265°
2026-05-07 09:51 36.17890 -3.32104 30922 ft 433 kts 265°
2026-05-07 09:52 36.17443 -3.39531 30920 ft 432 kts 265°
2026-05-07 09:52 36.16995 -3.46914 30921 ft 431 kts 265°
2026-05-07 09:53 36.16546 -3.54286 30923 ft 432 kts 265°
2026-05-07 09:53 36.16088 -3.61678 30923 ft 432 kts 265°
2026-05-07 09:54 36.15627 -3.69063 30927 ft 431 kts 265°
2026-05-07 09:54 36.15161 -3.76434 30922 ft 431 kts 265°
2026-05-07 09:55 36.14690 -3.83846 30930 ft 431 kts 265°
2026-05-07 09:55 36.14219 -3.91182 30934 ft 431 kts 265°
2026-05-07 09:56 36.13741 -3.98565 30938 ft 431 kts 265°
2026-05-07 09:56 36.13255 -4.05964 30936 ft 431 kts 266°
2026-05-07 09:57 36.12768 -4.13294 30927 ft 430 kts 266°
2026-05-07 09:57 36.12279 -4.20650 30921 ft 429 kts 266°
2026-05-07 09:58 36.11784 -4.27965 30918 ft 429 kts 267°
2026-05-07 09:58 36.11288 -4.35277 30921 ft 428 kts 266°
2026-05-07 09:59 36.10786 -4.42610 30918 ft 428 kts 267°
2026-05-07 09:59 36.10281 -4.49888 30920 ft 426 kts 267°
2026-05-07 10:00 36.09772 -4.57185 30921 ft 426 kts 268°
2026-05-07 10:00 36.09262 -4.64423 30915 ft 425 kts 268°
2026-05-07 10:01 36.08733 -4.71706 30920 ft 425 kts 266°
2026-05-07 10:01 36.07932 -4.78942 30923 ft 427 kts 265°
2026-05-07 10:02 36.07090 -4.86140 30917 ft 426 kts 265°
2026-05-07 10:02 36.06245 -4.93342 30922 ft 425 kts 265°
2026-05-07 10:03 36.05385 -5.00594 30920 ft 425 kts 266°
2026-05-07 10:03 36.04533 -5.07792 30919 ft 425 kts 265°
2026-05-07 10:04 36.03672 -5.15004 30930 ft 426 kts 266°
2026-05-07 10:04 36.02803 -5.22247 30927 ft 425 kts 265°
2026-05-07 10:05 36.01934 -5.29429 30933 ft 425 kts 266°
2026-05-07 10:05 36.01066 -5.36580 30938 ft 424 kts 266°
2026-05-07 10:06 36.00187 -5.43802 30939 ft 424 kts 266°
2026-05-07 10:06 35.99307 -5.50952 30936 ft 422 kts 266°
2026-05-07 10:07 35.98421 -5.58148 30931 ft 422 kts 266°
2026-05-07 10:07 35.97540 -5.65260 30928 ft 421 kts 266°
2026-05-07 10:08 35.96656 -5.72370 30924 ft 421 kts 266°
2026-05-07 10:08 35.95767 -5.79491 30927 ft 422 kts 266°
2026-05-07 10:09 35.94872 -5.86635 30926 ft 421 kts 266°
2026-05-07 10:09 35.94041 -5.93745 30925 ft 418 kts 269°
2026-05-07 10:10 35.93668 -6.00870 30925 ft 417 kts 273°
2026-05-07 10:10 35.93530 -6.08039 30927 ft 418 kts 273°
2026-05-07 10:11 35.93395 -6.15203 30927 ft 419 kts 273°
2026-05-07 10:11 35.93259 -6.22337 30930 ft 418 kts 273°
2026-05-07 10:12 35.93113 -6.29520 30928 ft 419 kts 273°
2026-05-07 10:12 35.92963 -6.36649 30931 ft 419 kts 273°
2026-05-07 10:13 35.92218 -6.43830 30934 ft 427 kts 262°
2026-05-07 10:13 35.90226 -6.50758 30929 ft 438 kts 251°
2026-05-07 10:14 35.86996 -6.57197 30937 ft 447 kts 241°
2026-05-07 10:14 35.83233 -6.63338 30939 ft 449 kts 240°
2026-05-07 10:15 35.79437 -6.69418 30946 ft 449 kts 239°
2026-05-07 10:15 35.75640 -6.75472 30941 ft 449 kts 239°
2026-05-07 10:16 35.71827 -6.81552 30941 ft 450 kts 239°
2026-05-07 10:16 35.68016 -6.87616 30944 ft 449 kts 239°
2026-05-07 10:17 35.64186 -6.93703 30938 ft 450 kts 239°
2026-05-07 10:17 35.60370 -6.99761 30937 ft 449 kts 239°
2026-05-07 10:18 35.56520 -7.05856 30938 ft 451 kts 239°
2026-05-07 10:18 35.52674 -7.11938 30943 ft 452 kts 239°
2026-05-07 10:19 35.48854 -7.17967 30942 ft 450 kts 239°
2026-05-07 10:19 35.44999 -7.24042 30940 ft 450 kts 239°
2026-05-07 10:20 35.41145 -7.30104 30939 ft 451 kts 239°
2026-05-07 10:20 35.37277 -7.36175 30938 ft 452 kts 239°
2026-05-07 10:21 35.33437 -7.42194 30938 ft 451 kts 239°
2026-05-07 10:21 35.29556 -7.48269 30935 ft 451 kts 239°
2026-05-07 10:22 35.25697 -7.54294 30934 ft 451 kts 238°
2026-05-07 10:22 35.21827 -7.60329 30947 ft 450 kts 238°
2026-05-07 10:23 35.17984 -7.66309 30951 ft 450 kts 238°
2026-05-07 10:23 35.14132 -7.72295 30954 ft 448 kts 238°
2026-05-07 10:24 35.10257 -7.78308 30953 ft 450 kts 238°
2026-05-07 10:24 35.06387 -7.84300 30956 ft 450 kts 237°
2026-05-07 10:25 35.02527 -7.90269 30960 ft 449 kts 238°
2026-05-07 10:25 34.98662 -7.96233 30960 ft 450 kts 237°
2026-05-07 10:26 34.94795 -8.02193 30964 ft 448 kts 237°
2026-05-07 10:26 34.90933 -8.08131 30962 ft 448 kts 237°
2026-05-07 10:27 34.87060 -8.14079 30962 ft 449 kts 237°
2026-05-07 10:27 34.83198 -8.20002 30964 ft 447 kts 237°
2026-05-07 10:28 34.79320 -8.25934 30962 ft 448 kts 237°
2026-05-07 10:28 34.75448 -8.31849 30964 ft 447 kts 237°
2026-05-07 10:29 34.71566 -8.37767 30964 ft 446 kts 237°
2026-05-07 10:29 34.67698 -8.43660 30965 ft 446 kts 237°
2026-05-07 10:30 34.61884 -8.52503 30962 ft 445 kts 237°
2026-05-07 10:30 34.58025 -8.58356 30963 ft 444 kts 237°
2026-05-07 10:31 34.54161 -8.64204 30962 ft 444 kts 237°
2026-05-07 10:31 34.50303 -8.70038 30963 ft 444 kts 236°
2026-05-07 10:32 34.46328 -8.75788 30962 ft 446 kts 233°
2026-05-07 10:32 34.41891 -8.81122 30963 ft 451 kts 227°
2026-05-07 10:33 34.37061 -8.85951 30964 ft 453 kts 224°
2026-05-07 10:33 34.32152 -8.90672 30960 ft 452 kts 224°
2026-05-07 10:34 34.27206 -8.95424 30961 ft 453 kts 224°
2026-05-07 10:34 34.22314 -9.00109 30969 ft 451 kts 224°
2026-05-07 10:35 34.17379 -9.04829 30973 ft 451 kts 224°
2026-05-07 10:35 34.12441 -9.09547 30979 ft 452 kts 224°
2026-05-07 10:36 34.07499 -9.14257 30981 ft 453 kts 224°
2026-05-07 10:36 34.02568 -9.18950 30981 ft 452 kts 224°
2026-05-07 10:37 33.97640 -9.23634 30983 ft 451 kts 224°
2026-05-07 10:37 33.92712 -9.28310 30983 ft 451 kts 224°
2026-05-07 10:38 33.87786 -9.32979 30980 ft 451 kts 224°
2026-05-07 10:38 33.82878 -9.37624 30981 ft 451 kts 224°
2026-05-07 10:39 33.77914 -9.42312 30981 ft 452 kts 224°
2026-05-07 10:39 33.72999 -9.46948 30979 ft 452 kts 224°
2026-05-07 10:40 33.68022 -9.51637 30979 ft 452 kts 223°
2026-05-07 10:40 33.63102 -9.56265 30975 ft 452 kts 223°
2026-05-07 10:41 33.58158 -9.60908 30976 ft 451 kts 223°
2026-05-07 10:41 33.53266 -9.65489 30977 ft 442 kts 223°
2026-05-07 10:42 33.48427 -9.70023 30974 ft 442 kts 223°
2026-05-07 10:42 33.43579 -9.74556 30972 ft 442 kts 223°
2026-05-07 10:43 33.38726 -9.79087 30968 ft 442 kts 223°
2026-05-07 10:43 33.33885 -9.83603 30966 ft 443 kts 223°
2026-05-07 10:44 33.29045 -9.88108 30967 ft 443 kts 223°
2026-05-07 10:44 33.24170 -9.92642 30964 ft 443 kts 223°
2026-05-07 10:45 33.19315 -9.97147 30962 ft 443 kts 223°
2026-05-07 10:45 33.14435 -10.01670 30961 ft 444 kts 223°
2026-05-07 10:46 33.09548 -10.06194 30962 ft 443 kts 223°
2026-05-07 10:46 33.04686 -10.10690 30962 ft 443 kts 223°
2026-05-07 10:47 32.99812 -10.15185 30966 ft 442 kts 222°
2026-05-07 10:47 32.94942 -10.19659 30966 ft 442 kts 222°
2026-05-07 10:48 32.90076 -10.24124 30966 ft 443 kts 222°
2026-05-07 10:48 32.85175 -10.28619 30968 ft 443 kts 222°
2026-05-07 10:49 32.80312 -10.33074 30971 ft 443 kts 223°
2026-05-07 10:49 32.75448 -10.37523 30971 ft 443 kts 223°
2026-05-07 10:50 32.70559 -10.41989 30971 ft 444 kts 223°
2026-05-07 10:50 32.65653 -10.46466 30971 ft 445 kts 222°
2026-05-07 10:51 32.60739 -10.50942 30975 ft 447 kts 222°
2026-05-07 10:51 32.55730 -10.55504 30972 ft 462 kts 222°
2026-05-07 10:52 32.50553 -10.60210 30972 ft 476 kts 222°
2026-05-07 10:52 32.45240 -10.65029 30971 ft 487 kts 221°
2026-05-07 10:53 32.42564 -10.67441 31129 ft 489 kts 221°
2026-05-07 10:53 32.39862 -10.69872 31542 ft 486 kts 221°
2026-05-07 10:53 32.37186 -10.72273 32072 ft 480 kts 221°
2026-05-07 10:53 32.34543 -10.74639 32586 ft 475 kts 221°
2026-05-07 10:54 32.31916 -10.76984 33109 ft 470 kts 221°
2026-05-07 10:54 32.29325 -10.79291 33660 ft 463 kts 221°
2026-05-07 10:54 32.26761 -10.81564 34250 ft 456 kts 221°
2026-05-07 10:54 32.24271 -10.83765 34884 ft 448 kts 221°
2026-05-07 10:55 32.21799 -10.85939 35536 ft 439 kts 221°
2026-05-07 10:55 32.19363 -10.88072 36207 ft 429 kts 221°
2026-05-07 10:55 32.16990 -10.90139 36873 ft 419 kts 222°
2026-05-07 10:55 32.14692 -10.92129 37530 ft 408 kts 221°
2026-05-07 10:56 32.12429 -10.94075 38169 ft 396 kts 221°
2026-05-07 10:56 32.10249 -10.95938 38763 ft 384 kts 221°
2026-05-07 10:56 32.08114 -10.97748 39309 ft 372 kts 222°
2026-05-07 10:56 32.06030 -10.99500 39785 ft 361 kts 222°
2026-05-07 10:57 32.04002 -11.01193 40020 ft 355 kts 222°
2026-05-07 10:57 32.01971 -11.02889 39801 ft 361 kts 221°
2026-05-07 10:57 31.99902 -11.04626 39301 ft 373 kts 221°
2026-05-07 10:57 31.97765 -11.06432 38871 ft 384 kts 221°
2026-05-07 10:58 31.95586 -11.08282 38519 ft 393 kts 222°
2026-05-07 10:58 31.93347 -11.10192 38223 ft 401 kts 221°
2026-05-07 10:58 31.91066 -11.12144 37974 ft 409 kts 221°
2026-05-07 10:58 31.88735 -11.14144 37759 ft 416 kts 221°
2026-05-07 10:59 31.86401 -11.16153 37579 ft 422 kts 221°
2026-05-07 10:59 31.84007 -11.18216 37422 ft 428 kts 221°
2026-05-07 10:59 31.81580 -11.20312 37296 ft 433 kts 221°
2026-05-07 10:59 31.79148 -11.22415 37190 ft 438 kts 221°
2026-05-07 11:00 31.74297 -11.26618 37052 ft 447 kts 221°
2026-05-07 11:00 31.69266 -11.30983 37010 ft 453 kts 221°
2026-05-07 11:01 31.64159 -11.35417 37057 ft 458 kts 221°
2026-05-07 11:01 31.59057 -11.39845 37185 ft 460 kts 221°
2026-05-07 11:02 31.53915 -11.44302 37405 ft 460 kts 221°
2026-05-07 11:02 31.51344 -11.46528 37545 ft 459 kts 221°
2026-05-07 11:02 31.48769 -11.48753 37710 ft 458 kts 221°
2026-05-07 11:03 31.46187 -11.50983 37901 ft 456 kts 221°
2026-05-07 11:03 31.43651 -11.53169 38111 ft 454 kts 221°
2026-05-07 11:03 31.41098 -11.55366 38339 ft 451 kts 221°
2026-05-07 11:03 31.38588 -11.57520 38580 ft 448 kts 221°
2026-05-07 11:04 31.36064 -11.59683 38840 ft 444 kts 221°
2026-05-07 11:04 31.33598 -11.61789 39120 ft 440 kts 222°
2026-05-07 11:04 31.31105 -11.63914 39419 ft 435 kts 221°
2026-05-07 11:04 31.28677 -11.65976 39734 ft 430 kts 221°
2026-05-07 11:05 31.26274 -11.68011 40056 ft 423 kts 221°
2026-05-07 11:05 31.23911 -11.70003 40390 ft 417 kts 221°
2026-05-07 11:05 31.21595 -11.71947 40718 ft 409 kts 221°
2026-05-07 11:05 31.19311 -11.73855 41029 ft 401 kts 221°
2026-05-07 11:06 31.17058 -11.75727 41335 ft 392 kts 221°
2026-05-07 11:06 31.14848 -11.77553 41629 ft 383 kts 221°
2026-05-07 11:06 31.12692 -11.79324 41889 ft 375 kts 221°
2026-05-07 11:06 31.10590 -11.81041 41974 ft 371 kts 221°
2026-05-07 11:07 31.08447 -11.82792 41714 ft 377 kts 221°
2026-05-07 11:07 31.06280 -11.84569 41343 ft 385 kts 221°
2026-05-07 11:07 31.04079 -11.86383 41031 ft 392 kts 221°
2026-05-07 11:07 31.01834 -11.88239 40782 ft 398 kts 221°
2026-05-07 11:08 30.99559 -11.90124 40564 ft 403 kts 221°
2026-05-07 11:08 30.97290 -11.92008 40384 ft 408 kts 221°
2026-05-07 11:08 30.94965 -11.93941 40218 ft 412 kts 221°
2026-05-07 11:08 30.92625 -11.95890 40089 ft 415 kts 221°
2026-05-07 11:09 30.90272 -11.97851 39985 ft 418 kts 221°
2026-05-07 11:09 30.87886 -11.99840 39913 ft 420 kts 221°
2026-05-07 11:09 30.83122 -12.03814 39841 ft 422 kts 221°
2026-05-07 11:10 30.78337 -12.07802 39873 ft 423 kts 221°
2026-05-07 11:10 30.73576 -12.11763 40012 ft 420 kts 221°
2026-05-07 11:11 30.71196 -12.13738 40125 ft 418 kts 221°
2026-05-07 11:11 30.68832 -12.15697 40257 ft 416 kts 221°
2026-05-07 11:11 30.66488 -12.17634 40407 ft 412 kts 221°
2026-05-07 11:11 30.64152 -12.19559 40573 ft 408 kts 222°
2026-05-07 11:12 30.61836 -12.21462 40757 ft 404 kts 221°
2026-05-07 11:12 30.59552 -12.23332 40951 ft 399 kts 221°
2026-05-07 11:12 30.57313 -12.25158 41145 ft 393 kts 222°
2026-05-07 11:12 30.55078 -12.26974 41340 ft 387 kts 221°
2026-05-07 11:13 30.52897 -12.28737 41500 ft 381 kts 222°
2026-05-07 11:13 30.50733 -12.30479 41660 ft 375 kts 221°
2026-05-07 11:13 30.46447 -12.33915 41500 ft 376 kts 221°
2026-05-07 11:14 30.44293 -12.35647 41232 ft 382 kts 221°
2026-05-07 11:14 30.42087 -12.37426 40965 ft 387 kts 221°
2026-05-07 11:14 30.39851 -12.39233 40747 ft 391 kts 221°
2026-05-07 11:14 30.37632 -12.41029 40587 ft 394 kts 221°
2026-05-07 11:15 30.35366 -12.42864 40467 ft 396 kts 221°
2026-05-07 11:15 30.33119 -12.44684 40383 ft 398 kts 221°
2026-05-07 11:15 30.28568 -12.48371 40309 ft 399 kts 221°
2026-05-07 11:16 30.24031 -12.52041 40351 ft 397 kts 221°
2026-05-07 11:16 30.19529 -12.55671 40477 ft 393 kts 222°
2026-05-07 11:17 30.15073 -12.59249 40664 ft 387 kts 221°
2026-05-07 11:17 30.12886 -12.60997 40768 ft 384 kts 221°
2026-05-07 11:17 30.10689 -12.62749 40883 ft 380 kts 222°
2026-05-07 11:18 30.08520 -12.64472 41005 ft 376 kts 222°
2026-05-07 11:18 30.06369 -12.66174 41128 ft 372 kts 221°
2026-05-07 11:18 30.02090 -12.69554 40927 ft 375 kts 221°
2026-05-07 11:19 29.99922 -12.71271 40696 ft 380 kts 221°
2026-05-07 11:19 29.97731 -12.73011 40522 ft 383 kts 221°
2026-05-07 11:19 29.95520 -12.74768 40391 ft 386 kts 221°
2026-05-07 11:19 29.93322 -12.76517 40306 ft 388 kts 221°
2026-05-07 11:20 29.88856 -12.80071 40240 ft 389 kts 221°
2026-05-07 11:20 29.84374 -12.83634 40260 ft 388 kts 221°
2026-05-07 11:21 29.79937 -12.87152 40367 ft 385 kts 221°
2026-05-07 11:21 29.75545 -12.90620 40531 ft 380 kts 221°
2026-05-07 11:22 29.73382 -12.92321 40638 ft 377 kts 221°
2026-05-07 11:22 29.71211 -12.94024 40748 ft 373 kts 221°
2026-05-07 11:22 29.66947 -12.97356 40707 ft 372 kts 221°
2026-05-07 11:23 29.64772 -12.99057 40525 ft 376 kts 221°
2026-05-07 11:23 29.62607 -13.00754 40366 ft 379 kts 221°
2026-05-07 11:23 29.60431 -13.02460 40255 ft 381 kts 221°
2026-05-07 11:23 29.58238 -13.04182 40180 ft 382 kts 221°
2026-05-07 11:24 29.53834 -13.07639 40128 ft 382 kts 221°
2026-05-07 11:24 29.49452 -13.11070 40179 ft 380 kts 222°
2026-05-07 11:25 29.45081 -13.14483 40317 ft 376 kts 221°
2026-05-07 11:25 29.40783 -13.17821 40499 ft 370 kts 221°
2026-05-07 11:26 29.36508 -13.21130 40327 ft 373 kts 221°
2026-05-07 11:26 29.34330 -13.22820 40136 ft 377 kts 221°
2026-05-07 11:26 29.32164 -13.24504 39987 ft 380 kts 221°
2026-05-07 11:27 29.29948 -13.26230 39878 ft 382 kts 221°
2026-05-07 11:27 29.27767 -13.27929 39811 ft 383 kts 221°
2026-05-07 11:27 29.23331 -13.31385 39789 ft 384 kts 221°
2026-05-07 11:28 29.18909 -13.34824 39851 ft 382 kts 221°
2026-05-07 11:28 29.14507 -13.38236 40004 ft 378 kts 221°
2026-05-07 11:29 29.10191 -13.41564 40210 ft 372 kts 221°
2026-05-07 11:29 29.08046 -13.43210 40316 ft 369 kts 221°
2026-05-07 11:29 29.05903 -13.44851 40315 ft 368 kts 221°
2026-05-07 11:30 29.03752 -13.46500 40139 ft 372 kts 221°
2026-05-07 11:30 29.01610 -13.48145 39959 ft 376 kts 222°
2026-05-07 11:30 28.99420 -13.49831 39826 ft 379 kts 222°
2026-05-07 11:30 28.97215 -13.51531 39734 ft 381 kts 222°
2026-05-07 11:31 28.92814 -13.54925 39662 ft 383 kts 221°
2026-05-07 11:31 28.88391 -13.58334 39693 ft 382 kts 222°
2026-05-07 11:32 28.83991 -13.61716 39795 ft 379 kts 222°
2026-05-07 11:32 28.81833 -13.63370 39874 ft 377 kts 222°
2026-05-07 11:33 28.77474 -13.66697 40098 ft 371 kts 221°
2026-05-07 11:33 28.75356 -13.68305 40220 ft 367 kts 221°
2026-05-07 11:33 28.73222 -13.69923 40192 ft 368 kts 221°
2026-05-07 11:33 28.71072 -13.71556 39998 ft 373 kts 221°
2026-05-07 11:34 28.68909 -13.73204 39811 ft 377 kts 221°
2026-05-07 11:34 28.66724 -13.74873 39667 ft 381 kts 221°
2026-05-07 11:34 28.64518 -13.76561 39564 ft 383 kts 221°
2026-05-07 11:35 28.60055 -13.79981 39469 ft 387 kts 221°
2026-05-07 11:35 28.55521 -13.83458 39511 ft 387 kts 221°
2026-05-07 11:36 28.51026 -13.86880 39596 ft 388 kts 218°
2026-05-07 11:36 28.45911 -13.89273 39566 ft 406 kts 199°
2026-05-07 11:37 28.40243 -13.90189 39431 ft 407 kts 206°
2026-05-07 11:37 28.37738 -13.91538 39133 ft 391 kts 228°
2026-05-07 11:37 28.35996 -13.93798 38843 ft 376 kts 251°
2026-05-07 11:37 28.35138 -13.96564 38640 ft 370 kts 261°
2026-05-07 11:38 28.34561 -13.99414 38642 ft 370 kts 261°
2026-05-07 11:38 28.33053 -14.05019 38638 ft 377 kts 255°
2026-05-07 11:38 28.32077 -14.07817 38359 ft 386 kts 252°
2026-05-07 11:39 28.30508 -14.11853 37946 ft 399 kts 250°
2026-05-07 11:39 28.28086 -14.17659 37364 ft 416 kts 249°
2026-05-07 11:39 28.25519 -14.23622 36783 ft 429 kts 248°
2026-05-07 11:39 28.20549 -14.35015 35693 ft 430 kts 248°
2026-05-07 11:40 28.19429 -14.37581 35456 ft 431 kts 248°
2026-05-07 11:40 28.17823 -14.41235 35122 ft 431 kts 247°
2026-05-07 11:40 28.16420 -14.44215 34845 ft 433 kts 244°
2026-05-07 11:41 28.14873 -14.47178 34566 ft 434 kts 242°
2026-05-07 11:41 28.13196 -14.50052 34285 ft 436 kts 239°
2026-05-07 11:41 28.11404 -14.52813 34008 ft 438 kts 236°
2026-05-07 11:41 28.09462 -14.55507 33731 ft 441 kts 233°
2026-05-07 11:42 28.07394 -14.58094 33459 ft 444 kts 230°
2026-05-07 11:42 28.05238 -14.60558 33193 ft 446 kts 229°
2026-05-07 11:42 28.03039 -14.63047 32923 ft 447 kts 229°
2026-05-07 11:42 28.00819 -14.65556 32652 ft 447 kts 229°
2026-05-07 11:43 27.98618 -14.68041 32388 ft 449 kts 229°
2026-05-07 11:43 27.96419 -14.70519 32122 ft 449 kts 229°
2026-05-07 11:43 27.94202 -14.73016 31853 ft 451 kts 229°
2026-05-07 11:43 27.91955 -14.75546 31582 ft 452 kts 229°
2026-05-07 11:44 27.89740 -14.78035 31318 ft 453 kts 229°
2026-05-07 11:44 27.87505 -14.80547 31065 ft 454 kts 229°
2026-05-07 11:44 27.85254 -14.83075 31005 ft 455 kts 229°
2026-05-07 11:45 27.80724 -14.88156 31005 ft 456 kts 229°
2026-05-07 11:45 27.76238 -14.93184 31005 ft 456 kts 228°
2026-05-07 11:46 27.74262 -14.95264 31004 ft 457 kts 225°
2026-05-07 11:46 27.71573 -14.97712 31004 ft 460 kts 220°
2026-05-07 11:47 27.66125 -15.01611 31005 ft 466 kts 212°
2026-05-07 11:47 27.60180 -15.04610 31007 ft 469 kts 206°
2026-05-07 11:48 27.54091 -15.07282 31006 ft 470 kts 206°
2026-05-07 11:48 27.47979 -15.09951 31007 ft 470 kts 206°
2026-05-07 11:49 27.41893 -15.12611 31006 ft 471 kts 206°
2026-05-07 11:49 27.35741 -15.15301 31007 ft 472 kts 206°
2026-05-07 11:50 27.29629 -15.17970 31007 ft 472 kts 206°
2026-05-07 11:50 27.23502 -15.20641 31009 ft 472 kts 206°
2026-05-07 11:51 27.17396 -15.23301 31010 ft 472 kts 206°
2026-05-07 11:51 27.11017 -15.25305 31006 ft 479 kts 195°
2026-05-07 11:52 27.04303 -15.25926 31010 ft 488 kts 184°
2026-05-07 11:52 26.97503 -15.25184 31011 ft 493 kts 176°
2026-05-07 11:53 26.90697 -15.24055 31005 ft 493 kts 176°
2026-05-07 11:53 26.83915 -15.22955 31006 ft 494 kts 176°
2026-05-07 11:54 26.77063 -15.22334 31003 ft 487 kts 187°
2026-05-07 11:54 26.70480 -15.23514 31006 ft 478 kts 201°
2026-05-07 11:55 26.64416 -15.26394 31005 ft 468 kts 215°
2026-05-07 11:55 26.58889 -15.30113 31003 ft 465 kts 216°
2026-05-07 11:56 26.53335 -15.33898 31008 ft 466 kts 216°
2026-05-07 11:56 26.47807 -15.37644 31003 ft 466 kts 216°
2026-05-07 11:57 26.42224 -15.41413 30999 ft 467 kts 216°
2026-05-07 11:57 26.36658 -15.45161 31003 ft 467 kts 216°
2026-05-07 11:58 26.31087 -15.48909 31007 ft 468 kts 216°
2026-05-07 11:58 26.25507 -15.52659 31003 ft 468 kts 216°
2026-05-07 11:59 26.19915 -15.56410 31004 ft 469 kts 216°
2026-05-07 11:59 26.14343 -15.60144 31005 ft 469 kts 216°
2026-05-07 12:00 26.08737 -15.63897 31001 ft 470 kts 216°
2026-05-07 12:00 26.03137 -15.67641 31005 ft 471 kts 216°
2026-05-07 12:01 25.97495 -15.71409 31001 ft 472 kts 216°
2026-05-07 12:01 25.91868 -15.75163 30999 ft 472 kts 216°
2026-05-07 12:02 25.86229 -15.78920 30999 ft 472 kts 216°
2026-05-07 12:02 25.80613 -15.82661 30999 ft 471 kts 216°
2026-05-07 12:03 25.74963 -15.86416 30999 ft 472 kts 216°
2026-05-07 12:03 25.69359 -15.90139 31002 ft 472 kts 216°
2026-05-07 12:04 25.63698 -15.93894 31004 ft 472 kts 216°
2026-05-07 12:04 25.58047 -15.97640 31002 ft 473 kts 216°
2026-05-07 12:05 25.52426 -16.01360 31002 ft 473 kts 216°
2026-05-07 12:05 25.46752 -16.05111 31004 ft 473 kts 216°
2026-05-07 12:06 25.41111 -16.08838 31004 ft 474 kts 216°
2026-05-07 12:06 25.35440 -16.12579 31003 ft 474 kts 216°
2026-05-07 12:07 25.29768 -16.16318 31002 ft 474 kts 216°
2026-05-07 12:07 25.24085 -16.20060 31005 ft 475 kts 216°
2026-05-07 12:08 25.18396 -16.23801 31003 ft 475 kts 216°
2026-05-07 12:08 25.12705 -16.27538 31003 ft 476 kts 216°
2026-05-07 12:09 25.07009 -16.31276 31003 ft 476 kts 216°
2026-05-07 12:09 25.01344 -16.34989 31003 ft 476 kts 216°
2026-05-07 12:10 24.95642 -16.38722 31005 ft 475 kts 216°
2026-05-07 12:10 24.89934 -16.42454 30997 ft 475 kts 216°
2026-05-07 12:11 24.84250 -16.46165 31003 ft 475 kts 216°
2026-05-07 12:11 24.78576 -16.49867 31004 ft 475 kts 216°
2026-05-07 12:12 24.72873 -16.53585 30995 ft 475 kts 216°
2026-05-07 12:12 24.67166 -16.57301 31002 ft 475 kts 216°
2026-05-07 12:13 24.61460 -16.61012 30994 ft 475 kts 216°
2026-05-07 12:13 24.55752 -16.64718 30999 ft 475 kts 216°
2026-05-07 12:14 24.50079 -16.68400 31002 ft 475 kts 216°
2026-05-07 12:14 24.44369 -16.72102 30997 ft 475 kts 215°
2026-05-07 12:15 24.38657 -16.75800 30998 ft 475 kts 216°
2026-05-07 12:15 24.32937 -16.79500 30997 ft 475 kts 216°
2026-05-07 12:16 24.27226 -16.83191 31001 ft 474 kts 215°
2026-05-07 12:16 24.21562 -16.86847 31003 ft 475 kts 215°
2026-05-07 12:17 24.15849 -16.90532 30999 ft 475 kts 215°
2026-05-07 12:17 24.10136 -16.94213 31000 ft 476 kts 215°
2026-05-07 12:18 24.04422 -16.97889 31001 ft 476 kts 215°
2026-05-07 12:18 23.98709 -17.01561 31002 ft 475 kts 215°
2026-05-07 12:19 23.92987 -17.05235 30997 ft 475 kts 215°
2026-05-07 12:19 23.87264 -17.08907 30988 ft 475 kts 215°
2026-05-07 12:20 23.81559 -17.12563 30985 ft 474 kts 215°
2026-05-07 12:20 23.75850 -17.16217 30984 ft 474 kts 215°
2026-05-07 12:21 23.70118 -17.19884 30984 ft 474 kts 215°
2026-05-07 12:21 23.64420 -17.23523 30984 ft 474 kts 215°
2026-05-07 12:22 23.58687 -17.27182 30981 ft 475 kts 215°
2026-05-07 12:22 23.52959 -17.30834 30985 ft 475 kts 215°
2026-05-07 12:23 23.47240 -17.34477 30982 ft 475 kts 215°
2026-05-07 12:23 23.41546 -17.38099 30983 ft 475 kts 215°
2026-05-07 12:24 23.20268 -17.51605 30984 ft 475 kts 215°
2026-05-07 12:24 22.64707 -17.86648 31028 ft 476 kts 214°
2026-05-07 12:25 21.72541 -18.44044 30962 ft 476 kts 213°
2026-05-07 12:25 20.91118 -18.94030 30999 ft 477 kts 213°
2026-05-07 12:26 20.85328 -18.97549 30987 ft 477 kts 212°
2026-05-07 12:26 20.79535 -19.01070 30985 ft 476 kts 213°
2026-05-07 12:27 20.73763 -19.04580 30989 ft 476 kts 213°
2026-05-07 12:27 20.67991 -19.08089 30995 ft 476 kts 212°
2026-05-07 12:28 20.62212 -19.11599 30995 ft 476 kts 212°
2026-05-07 12:28 20.56452 -19.15095 30989 ft 475 kts 212°
2026-05-07 12:29 20.50708 -19.18577 30985 ft 475 kts 212°
2026-05-07 12:29 20.44947 -19.22067 30985 ft 475 kts 212°
2026-05-07 12:30 20.39193 -19.25552 30984 ft 475 kts 212°
2026-05-07 12:30 20.33418 -19.29044 30985 ft 475 kts 212°
2026-05-07 12:31 20.27678 -19.32512 30985 ft 474 kts 212°
2026-05-07 12:31 20.21909 -19.35996 30985 ft 474 kts 212°
2026-05-07 12:32 20.16164 -19.39461 30985 ft 474 kts 212°
2026-05-07 12:32 20.10413 -19.42927 30985 ft 474 kts 212°
2026-05-07 12:33 20.01757 -19.48138 30985 ft 474 kts 212°
2026-05-07 12:33 19.96012 -19.51593 30983 ft 473 kts 212°
2026-05-07 12:34 19.90276 -19.55042 30983 ft 474 kts 212°
2026-05-07 12:34 19.84523 -19.58495 30984 ft 473 kts 212°
2026-05-07 12:35 19.78798 -19.61929 30984 ft 472 kts 212°
2026-05-07 12:35 19.73034 -19.65385 30982 ft 473 kts 212°
2026-05-07 12:36 19.67311 -19.68813 30984 ft 472 kts 212°
2026-05-07 12:36 19.61609 -19.72225 30982 ft 472 kts 212°
2026-05-07 12:37 19.55866 -19.75658 30984 ft 472 kts 212°
2026-05-07 12:37 19.50148 -19.79077 30985 ft 471 kts 212°
2026-05-07 12:38 19.44428 -19.82493 30983 ft 470 kts 212°
2026-05-07 12:38 19.38712 -19.85904 30984 ft 470 kts 212°
2026-05-07 12:39 19.32983 -19.89320 30983 ft 471 kts 212°
2026-05-07 12:39 19.27269 -19.92726 30984 ft 470 kts 212°
2026-05-07 12:40 19.21554 -19.96127 30984 ft 470 kts 212°
2026-05-07 12:40 19.15864 -19.99510 30985 ft 469 kts 212°
2026-05-07 12:41 19.10164 -20.02899 30985 ft 469 kts 212°
2026-05-07 12:41 19.04467 -20.06283 30985 ft 468 kts 212°
2026-05-07 12:42 18.98785 -20.09654 30984 ft 467 kts 213°
2026-05-07 12:42 18.93281 -20.12918 30979 ft 466 kts 213°
2026-05-07 12:43 18.87611 -20.16279 30988 ft 466 kts 212°
2026-05-07 12:43 18.81948 -20.19630 30993 ft 466 kts 213°
2026-05-07 12:44 18.76314 -20.22965 30990 ft 465 kts 212°
2026-05-07 12:44 18.70642 -20.26319 30985 ft 465 kts 212°
2026-05-07 12:45 18.64990 -20.29656 30976 ft 465 kts 212°
2026-05-07 12:45 18.59333 -20.32995 30977 ft 464 kts 212°
2026-05-07 12:46 18.53705 -20.36314 30974 ft 465 kts 213°
2026-05-07 12:46 18.48016 -20.39667 30980 ft 465 kts 213°
2026-05-07 12:47 18.42386 -20.42982 30976 ft 464 kts 212°
2026-05-07 12:47 18.36710 -20.46320 30972 ft 463 kts 213°
2026-05-07 12:48 18.31090 -20.49627 30970 ft 464 kts 213°
2026-05-07 12:48 18.25426 -20.52955 30977 ft 465 kts 213°
2026-05-07 12:49 18.19784 -20.56266 30973 ft 464 kts 213°
2026-05-07 12:49 18.14139 -20.59578 30969 ft 464 kts 213°
2026-05-07 12:50 18.08492 -20.62891 30970 ft 464 kts 213°
2026-05-07 12:50 18.02864 -20.66186 30979 ft 463 kts 212°
2026-05-07 12:51 17.97228 -20.69486 30977 ft 463 kts 212°
2026-05-07 12:51 17.91584 -20.72785 30973 ft 463 kts 212°
2026-05-07 12:52 17.85947 -20.76079 30974 ft 463 kts 212°
2026-05-07 12:52 17.80280 -20.79389 30978 ft 463 kts 213°
2026-05-07 12:53 17.74637 -20.82683 30977 ft 461 kts 212°
2026-05-07 12:53 17.69013 -20.85964 30977 ft 461 kts 212°
2026-05-07 12:54 17.63422 -20.89222 30974 ft 461 kts 212°
2026-05-07 12:54 17.57784 -20.92504 30970 ft 460 kts 213°
2026-05-07 12:55 17.52168 -20.95774 30972 ft 460 kts 213°
2026-05-07 12:55 17.46570 -20.99029 30974 ft 461 kts 213°
2026-05-07 12:56 17.40913 -21.02317 30972 ft 460 kts 213°
2026-05-07 12:56 17.35286 -21.05585 30972 ft 460 kts 212°
2026-05-07 12:57 17.29712 -21.08818 30970 ft 459 kts 213°
2026-05-07 12:57 17.24119 -21.12061 30968 ft 458 kts 213°
2026-05-07 12:58 17.18505 -21.15315 30978 ft 458 kts 213°
2026-05-07 12:58 17.12938 -21.18538 30977 ft 457 kts 213°
2026-05-07 12:59 17.07339 -21.21778 30978 ft 458 kts 213°
2026-05-07 12:59 17.01732 -21.25021 30974 ft 457 kts 213°
2026-05-07 13:00 16.96152 -21.28247 30987 ft 456 kts 213°
2026-05-07 13:00 16.90612 -21.31444 30982 ft 455 kts 213°
2026-05-07 13:01 16.85039 -21.34661 30976 ft 455 kts 213°
2026-05-07 13:01 16.79462 -21.37877 30978 ft 455 kts 213°
2026-05-07 13:02 16.73919 -21.41071 30983 ft 454 kts 213°
2026-05-07 13:02 16.68361 -21.44273 30980 ft 453 kts 213°
2026-05-07 13:03 16.62803 -21.47471 30982 ft 453 kts 213°
2026-05-07 13:03 16.57248 -21.50667 30979 ft 452 kts 213°
2026-05-07 13:04 16.51713 -21.53848 30980 ft 452 kts 213°
2026-05-07 13:04 16.46203 -21.57012 30979 ft 450 kts 213°
2026-05-07 13:05 16.40684 -21.60180 30979 ft 451 kts 213°
2026-05-07 13:05 16.35162 -21.63350 30985 ft 450 kts 213°
2026-05-07 13:06 16.29657 -21.66504 30981 ft 450 kts 213°
2026-05-07 13:06 16.24180 -21.69643 30979 ft 450 kts 213°
2026-05-07 13:07 16.18662 -21.72801 30984 ft 448 kts 213°
2026-05-07 13:07 16.13200 -21.75927 30975 ft 447 kts 213°
2026-05-07 13:08 16.07709 -21.79066 30988 ft 446 kts 213°
2026-05-07 13:08 16.02248 -21.82187 30980 ft 446 kts 213°
2026-05-07 13:09 15.96817 -21.85290 30975 ft 446 kts 213°
2026-05-07 13:09 15.91360 -21.88402 30978 ft 446 kts 213°
2026-05-07 13:10 15.85914 -21.91505 30982 ft 445 kts 213°
2026-05-07 13:10 15.80482 -21.94597 30982 ft 445 kts 213°
2026-05-07 13:11 15.75012 -21.97711 30981 ft 445 kts 213°
2026-05-07 13:11 15.69582 -22.00799 30973 ft 443 kts 213°
2026-05-07 13:12 15.64136 -22.03894 30973 ft 445 kts 213°
2026-05-07 13:12 15.58681 -22.06991 30974 ft 446 kts 213°
2026-05-07 13:13 15.53238 -22.10081 30973 ft 445 kts 213°
2026-05-07 13:13 15.47815 -22.13156 30972 ft 444 kts 213°
2026-05-07 13:14 15.42389 -22.16233 30973 ft 444 kts 213°
2026-05-07 13:14 15.36928 -22.19327 30972 ft 444 kts 213°
2026-05-07 13:15 15.31518 -22.22391 30969 ft 444 kts 213°
2026-05-07 13:15 15.26071 -22.25472 30966 ft 443 kts 213°
2026-05-07 13:16 15.20634 -22.28546 30966 ft 443 kts 213°
2026-05-07 13:16 15.15195 -22.31619 30964 ft 444 kts 213°
2026-05-07 13:17 15.09770 -22.34682 30961 ft 444 kts 213°
2026-05-07 13:17 15.04342 -22.37748 30963 ft 443 kts 213°
2026-05-07 13:18 14.98906 -22.40815 30962 ft 443 kts 213°
2026-05-07 13:18 14.93494 -22.43866 30960 ft 443 kts 213°
2026-05-07 13:19 14.88057 -22.46930 30964 ft 444 kts 213°
2026-05-07 13:19 14.82602 -22.50003 30957 ft 444 kts 213°
2026-05-07 13:20 14.77166 -22.53065 30962 ft 443 kts 213°
2026-05-07 13:20 14.71711 -22.56132 30961 ft 443 kts 213°
2026-05-07 13:21 14.66261 -22.59197 30964 ft 443 kts 213°
2026-05-07 13:21 14.60819 -22.62257 30963 ft 443 kts 213°
2026-05-07 13:22 14.55392 -22.65303 30969 ft 442 kts 213°
2026-05-07 13:22 14.49933 -22.68368 30973 ft 443 kts 213°
2026-05-07 13:23 14.44519 -22.71406 30972 ft 442 kts 213°
2026-05-07 13:23 14.39079 -22.74456 30975 ft 443 kts 213°
2026-05-07 13:24 14.33638 -22.77506 30979 ft 442 kts 213°
2026-05-07 13:24 14.28234 -22.80532 30978 ft 442 kts 213°
2026-05-07 13:25 14.22815 -22.83564 30971 ft 441 kts 213°
2026-05-07 13:25 14.17420 -22.86583 30976 ft 440 kts 213°
2026-05-07 13:26 14.12008 -22.89609 30985 ft 440 kts 213°
2026-05-07 13:26 14.06620 -22.92621 30975 ft 440 kts 213°
2026-05-07 13:27 14.01206 -22.95644 30984 ft 440 kts 213°
2026-05-07 13:27 13.95824 -22.98649 30981 ft 440 kts 213°
2026-05-07 13:28 13.90413 -23.01668 30982 ft 441 kts 213°
2026-05-07 13:28 13.84994 -23.04691 30981 ft 441 kts 212°
2026-05-07 13:29 13.79605 -23.07693 30981 ft 440 kts 213°
2026-05-07 13:29 13.74179 -23.10715 30979 ft 440 kts 212°
2026-05-07 13:30 13.68750 -23.13738 30979 ft 440 kts 213°
2026-05-07 13:30 13.63324 -23.16757 30979 ft 440 kts 213°
2026-05-07 13:31 13.57933 -23.19755 30978 ft 441 kts 212°
2026-05-07 13:31 13.52493 -23.22781 30977 ft 441 kts 212°
2026-05-07 13:32 13.47060 -23.25797 30976 ft 442 kts 212°
2026-05-07 13:32 13.41652 -23.28806 30974 ft 442 kts 212°
2026-05-07 13:33 13.36204 -23.31834 30974 ft 442 kts 212°
2026-05-07 13:33 13.30771 -23.34852 30973 ft 443 kts 212°
2026-05-07 13:34 13.22621 -23.39374 30970 ft 442 kts 212°
2026-05-07 13:35 13.17194 -23.42383 30968 ft 442 kts 212°
2026-05-07 13:35 13.11755 -23.45398 30965 ft 443 kts 212°
2026-05-07 13:36 13.06328 -23.48406 30964 ft 444 kts 212°
2026-05-07 13:36 13.00866 -23.51429 30964 ft 444 kts 212°
2026-05-07 13:37 12.95428 -23.54441 30964 ft 444 kts 212°
2026-05-07 13:37 12.89953 -23.57468 30964 ft 444 kts 212°
2026-05-07 13:38 12.84505 -23.60481 30964 ft 444 kts 212°
2026-05-07 13:38 12.79053 -23.63494 30964 ft 444 kts 212°
2026-05-07 13:39 12.73598 -23.66508 30966 ft 445 kts 212°
2026-05-07 13:39 12.68133 -23.69525 30964 ft 444 kts 212°
2026-05-07 13:40 12.62653 -23.72549 30964 ft 446 kts 212°
2026-05-07 13:40 12.57172 -23.75572 30964 ft 445 kts 211°
2026-05-07 13:41 12.51706 -23.78586 30963 ft 446 kts 212°
2026-05-07 13:41 12.46197 -23.81622 30964 ft 447 kts 211°
2026-05-07 13:42 12.40719 -23.84637 30964 ft 447 kts 211°
2026-05-07 13:42 12.35221 -23.87664 30964 ft 446 kts 212°
2026-05-07 13:43 12.29734 -23.90684 30964 ft 447 kts 212°
2026-05-07 13:43 12.24249 -23.93701 30964 ft 446 kts 211°
2026-05-07 13:44 12.18751 -23.96723 30964 ft 447 kts 211°
2026-05-07 13:44 12.13251 -23.99747 30963 ft 447 kts 211°
2026-05-07 13:45 12.07748 -24.02768 30964 ft 447 kts 211°
2026-05-07 13:45 12.02226 -24.05800 30964 ft 448 kts 211°
2026-05-07 13:46 11.96747 -24.08806 30964 ft 448 kts 211°
2026-05-07 13:46 11.91208 -24.11844 30963 ft 449 kts 211°
2026-05-07 13:47 11.85687 -24.14868 30964 ft 450 kts 211°
2026-05-07 13:47 11.80136 -24.17911 30964 ft 450 kts 211°
2026-05-07 13:48 11.74610 -24.20937 30963 ft 450 kts 211°
2026-05-07 13:48 11.69075 -24.23966 30964 ft 450 kts 211°
2026-05-07 13:49 11.63514 -24.27009 30961 ft 450 kts 211°
2026-05-07 13:49 11.57988 -24.30031 30959 ft 450 kts 211°
2026-05-07 13:50 11.52431 -24.33070 30959 ft 451 kts 211°
2026-05-07 13:50 11.46893 -24.36095 30957 ft 452 kts 211°
2026-05-07 13:51 11.41357 -24.39121 30955 ft 452 kts 211°
2026-05-07 13:51 11.35764 -24.42174 30952 ft 452 kts 211°
2026-05-07 13:52 11.30175 -24.45224 30949 ft 453 kts 211°
2026-05-07 13:52 11.24624 -24.48251 30947 ft 453 kts 211°
2026-05-07 13:53 11.19041 -24.51294 30945 ft 453 kts 211°
2026-05-07 13:53 11.13448 -24.54340 30945 ft 453 kts 211°
2026-05-07 13:54 11.07889 -24.57369 30945 ft 454 kts 211°
2026-05-07 13:54 11.02276 -24.60426 30944 ft 454 kts 211°
2026-05-07 13:55 10.96680 -24.63472 30943 ft 455 kts 211°
2026-05-07 13:55 10.91111 -24.66502 30944 ft 455 kts 211°
2026-05-07 13:56 10.85504 -24.69552 30942 ft 455 kts 211°
2026-05-07 13:56 10.79893 -24.72602 30941 ft 455 kts 211°
2026-05-07 13:57 10.74299 -24.75639 30942 ft 456 kts 210°
2026-05-07 13:57 10.68663 -24.78702 30942 ft 457 kts 210°
2026-05-07 13:58 10.63050 -24.81747 30942 ft 457 kts 210°
2026-05-07 13:58 10.57415 -24.84804 30942 ft 457 kts 210°
2026-05-07 13:59 10.51791 -24.87854 30941 ft 457 kts 210°
2026-05-07 13:59 10.46184 -24.90896 30941 ft 458 kts 210°
2026-05-07 14:00 10.40519 -24.93966 30942 ft 458 kts 210°
2026-05-07 14:00 10.34891 -24.97015 30942 ft 458 kts 210°
2026-05-07 14:01 10.29251 -25.00069 30942 ft 459 kts 210°
2026-05-07 14:01 10.23564 -25.03146 30942 ft 459 kts 210°
2026-05-07 14:02 10.17910 -25.06204 30943 ft 460 kts 210°
2026-05-07 14:02 10.10576 -25.10170 31581 ft 461 kts 210°
2026-05-07 14:02 10.06181 -25.12545 32163 ft 458 kts 210°
2026-05-07 14:03 10.03369 -25.14064 32488 ft 457 kts 210°
2026-05-07 14:03 10.00575 -25.15573 32811 ft 456 kts 210°
2026-05-07 14:03 9.97762 -25.17092 33149 ft 455 kts 210°
2026-05-07 14:03 9.94859 -25.18659 33491 ft 454 kts 211°
2026-05-07 14:04 9.79437 -25.26978 35333 ft 452 kts 211°
2026-05-07 14:04 9.76657 -25.28475 35710 ft 449 kts 211°
2026-05-07 14:04 9.64446 -25.35055 35999 ft 448 kts 211°
2026-05-07 14:05 9.02072 -25.68581 35950 ft 451 kts 210°
2026-05-07 14:05 8.12314 -26.16568 35991 ft 454 kts 208°
2026-05-07 14:06 7.73493 -26.37264 35943 ft 457 kts 208°
2026-05-07 14:06 7.67828 -26.40280 35935 ft 457 kts 209°
2026-05-07 14:07 7.62195 -26.43280 35940 ft 458 kts 209°
2026-05-07 14:07 7.56531 -26.46294 35938 ft 459 kts 209°
2026-05-07 14:08 6.68652 -26.92942 35937 ft 461 kts 208°
2026-05-07 14:08 6.42942 -27.06549 35924 ft 461 kts 208°
2026-05-07 14:09 6.14254 -27.21709 35922 ft 461 kts 208°
2026-05-07 14:09 5.79987 -27.39790 35922 ft 461 kts 208°
2026-05-07 14:10 5.71299 -27.44370 35914 ft 461 kts 208°
2026-05-07 14:10 5.65585 -27.47382 35910 ft 461 kts 208°
2026-05-07 14:11 5.59905 -27.50375 35911 ft 461 kts 208°
2026-05-07 14:11 5.54187 -27.53387 35912 ft 462 kts 208°
2026-05-07 14:12 5.48485 -27.56390 35912 ft 463 kts 208°
2026-05-07 14:12 5.42756 -27.59407 35911 ft 463 kts 208°
2026-05-07 14:13 5.37031 -27.62420 35916 ft 463 kts 208°
2026-05-07 14:13 5.31309 -27.65433 35919 ft 462 kts 208°
2026-05-07 14:14 5.25581 -27.68447 35912 ft 463 kts 208°
2026-05-07 14:14 5.19871 -27.71451 35904 ft 462 kts 208°
2026-05-07 14:15 5.14153 -27.74458 35903 ft 463 kts 208°
2026-05-07 14:15 5.08408 -27.77480 35903 ft 463 kts 208°
2026-05-07 14:16 5.02685 -27.80489 35901 ft 464 kts 208°
2026-05-07 14:16 4.96950 -27.83504 35903 ft 464 kts 208°
2026-05-07 14:17 4.91173 -27.86540 35905 ft 464 kts 207°
2026-05-07 14:17 4.85454 -27.89546 35906 ft 464 kts 207°
2026-05-07 14:18 4.79721 -27.92557 35913 ft 464 kts 207°
2026-05-07 14:18 4.74884 -27.95097 35917 ft 464 kts 207°
2026-05-07 14:19 4.69159 -27.98104 35919 ft 464 kts 207°
2026-05-07 14:19 4.63417 -28.01119 35921 ft 465 kts 208°
2026-05-07 14:20 4.57674 -28.04135 35922 ft 465 kts 207°
2026-05-07 14:20 4.51924 -28.07153 35922 ft 465 kts 207°
2026-05-07 14:21 4.46147 -28.10185 35922 ft 465 kts 207°
2026-05-07 14:21 4.40415 -28.13192 35922 ft 465 kts 207°
2026-05-07 14:22 4.34625 -28.16229 35921 ft 466 kts 208°
2026-05-07 14:22 4.28870 -28.19248 35921 ft 467 kts 208°
2026-05-07 14:23 4.23117 -28.22265 35919 ft 467 kts 208°
2026-05-07 14:23 4.18713 -28.24573 35919 ft 467 kts 208°
2026-05-07 14:24 4.12942 -28.27600 35917 ft 467 kts 207°
2026-05-07 14:24 4.07546 -28.30429 35916 ft 467 kts 207°
2026-05-07 14:25 4.02414 -28.33118 35916 ft 467 kts 207°
2026-05-07 14:25 3.97970 -28.35447 35914 ft 467 kts 207°
2026-05-07 14:26 3.93482 -28.37798 35914 ft 467 kts 207°
2026-05-07 14:26 3.87694 -28.40830 35913 ft 468 kts 208°
2026-05-07 14:27 3.83240 -28.43163 35911 ft 468 kts 208°
2026-05-07 14:27 3.77446 -28.46198 35906 ft 468 kts 208°
2026-05-07 14:28 3.71602 -28.49259 35903 ft 469 kts 208°
2026-05-07 14:28 3.65798 -28.52298 35906 ft 469 kts 207°
2026-05-07 14:29 3.60031 -28.55317 35910 ft 469 kts 207°
2026-05-07 14:29 3.54207 -28.58366 35911 ft 468 kts 207°
2026-05-07 14:30 3.48421 -28.61394 35911 ft 468 kts 207°
2026-05-07 14:30 3.42625 -28.64426 35908 ft 469 kts 207°
2026-05-07 14:31 3.36842 -28.67452 35906 ft 469 kts 207°
2026-05-07 14:31 3.31041 -28.70485 35904 ft 470 kts 207°
2026-05-07 14:32 3.25187 -28.73547 35901 ft 471 kts 207°
2026-05-07 14:32 3.19367 -28.76584 35901 ft 471 kts 206°
2026-05-07 14:33 3.13361 -28.79262 35901 ft 471 kts 201°
2026-05-07 14:33 3.07123 -28.81294 35903 ft 471 kts 194°
2026-05-07 14:34 3.00737 -28.82811 35905 ft 470 kts 193°
2026-05-07 14:34 2.94325 -28.84274 35912 ft 470 kts 192°
2026-05-07 14:35 2.87905 -28.85742 35918 ft 470 kts 193°
2026-05-07 14:35 2.81498 -28.87209 35917 ft 471 kts 193°
2026-05-07 14:36 2.75090 -28.88679 35917 ft 471 kts 193°
2026-05-07 14:36 2.68668 -28.90151 35909 ft 471 kts 193°
2026-05-07 14:37 2.62269 -28.91618 35903 ft 470 kts 193°
2026-05-07 14:37 2.52639 -28.93827 35902 ft 470 kts 193°
2026-05-07 14:38 2.46217 -28.95299 35900 ft 470 kts 193°
2026-05-07 14:38 2.39820 -28.96765 35902 ft 470 kts 193°
2026-05-07 14:39 2.33416 -28.98233 35901 ft 470 kts 193°
2026-05-07 14:39 2.27020 -28.99698 35901 ft 470 kts 193°
2026-05-07 14:40 2.20599 -29.01170 35901 ft 470 kts 193°
2026-05-07 14:40 2.14183 -29.02641 35901 ft 470 kts 193°
2026-05-07 14:41 2.07769 -29.04110 35902 ft 470 kts 193°
2026-05-07 14:41 2.01387 -29.05571 35901 ft 470 kts 193°
2026-05-07 14:42 1.94969 -29.07041 35901 ft 469 kts 193°
2026-05-07 14:42 1.88592 -29.08502 35902 ft 470 kts 193°
2026-05-07 14:43 1.82161 -29.09975 35901 ft 470 kts 193°
2026-05-07 14:43 1.75735 -29.11447 35902 ft 470 kts 193°
2026-05-07 14:44 1.69352 -29.12909 35902 ft 471 kts 193°
2026-05-07 14:44 1.62910 -29.14384 35901 ft 470 kts 193°
2026-05-07 14:45 1.56514 -29.15848 35897 ft 470 kts 193°
2026-05-07 14:45 1.50107 -29.17314 35899 ft 470 kts 193°
2026-05-07 14:46 1.43728 -29.18774 35901 ft 470 kts 193°
2026-05-07 14:46 1.37283 -29.20250 35902 ft 471 kts 193°
2026-05-07 14:47 1.30870 -29.21718 35901 ft 471 kts 193°
2026-05-07 14:47 1.24416 -29.23193 35903 ft 472 kts 192°
2026-05-07 14:48 1.17986 -29.24663 35902 ft 472 kts 193°
2026-05-07 14:48 1.11589 -29.26125 35904 ft 471 kts 193°
2026-05-07 14:49 1.05189 -29.27600 35900 ft 471 kts 193°
2026-05-07 14:49 0.98745 -29.29120 35892 ft 471 kts 193°
2026-05-07 14:50 0.92330 -29.30633 35888 ft 471 kts 193°
2026-05-07 14:50 0.85944 -29.32136 35887 ft 472 kts 193°
2026-05-07 14:51 0.79518 -29.33646 35888 ft 472 kts 193°
2026-05-07 14:51 0.73106 -29.35152 35887 ft 471 kts 193°
2026-05-07 14:52 0.66683 -29.36659 35884 ft 471 kts 193°
2026-05-07 14:52 0.60270 -29.38164 35882 ft 471 kts 193°
2026-05-07 14:53 0.53851 -29.39672 35881 ft 472 kts 193°
2026-05-07 14:53 0.47395 -29.41188 35881 ft 473 kts 193°
2026-05-07 14:54 0.40965 -29.42699 35881 ft 473 kts 193°
2026-05-07 14:54 0.34526 -29.44211 35881 ft 474 kts 193°
2026-05-07 14:55 0.28068 -29.45726 35881 ft 473 kts 193°
2026-05-07 14:55 0.21625 -29.47238 35881 ft 473 kts 193°
2026-05-07 14:56 0.15200 -29.48746 35881 ft 473 kts 193°
2026-05-07 14:56 0.08784 -29.50252 35881 ft 473 kts 193°
2026-05-07 14:57 0.02344 -29.51765 35887 ft 474 kts 193°
2026-05-07 14:57 -0.04120 -29.53283 35898 ft 474 kts 193°
2026-05-07 14:58 -0.10562 -29.54796 35901 ft 474 kts 193°
2026-05-07 14:58 -0.17042 -29.56318 35903 ft 473 kts 192°
2026-05-07 14:59 -0.23501 -29.57832 35902 ft 473 kts 193°
2026-05-07 14:59 -0.29928 -29.59340 35903 ft 475 kts 193°
2026-05-07 15:00 -0.36404 -29.60862 35902 ft 475 kts 193°
2026-05-07 15:00 -0.42876 -29.62383 35903 ft 475 kts 193°
2026-05-07 15:01 -0.49340 -29.63900 35903 ft 475 kts 193°
2026-05-07 15:01 -0.55790 -29.65415 35901 ft 475 kts 192°
2026-05-07 15:02 -0.62253 -29.66932 35903 ft 475 kts 192°
2026-05-07 15:02 -0.68718 -29.68449 35901 ft 474 kts 193°
2026-05-07 15:03 -0.75173 -29.69964 35903 ft 473 kts 193°
2026-05-07 15:03 -0.81602 -29.71474 35902 ft 473 kts 193°
2026-05-07 15:04 -0.88024 -29.72982 35902 ft 473 kts 193°
2026-05-07 15:04 -0.94490 -29.74500 35903 ft 473 kts 193°
2026-05-07 15:05 -1.00899 -29.76005 35902 ft 473 kts 193°
2026-05-07 15:05 -1.07323 -29.77514 35902 ft 472 kts 193°
2026-05-07 15:06 -1.13788 -29.79032 35901 ft 473 kts 193°
2026-05-07 15:06 -1.20210 -29.80540 35901 ft 473 kts 193°
2026-05-07 15:07 -1.26687 -29.82063 35905 ft 473 kts 193°
2026-05-07 15:07 -1.33119 -29.83572 35906 ft 474 kts 193°
2026-05-07 15:08 -1.39578 -29.85090 35904 ft 474 kts 193°
2026-05-07 15:08 -1.46020 -29.86602 35903 ft 475 kts 193°
2026-05-07 15:09 -1.52499 -29.88124 35901 ft 475 kts 193°
2026-05-07 15:09 -1.58960 -29.89641 35900 ft 476 kts 193°
2026-05-07 15:10 -1.65421 -29.91158 35901 ft 477 kts 193°
2026-05-07 15:10 -1.71914 -29.92682 35900 ft 477 kts 193°
2026-05-07 15:11 -1.78410 -29.94206 35900 ft 477 kts 193°
2026-05-07 15:11 -1.84886 -29.95727 35900 ft 476 kts 193°
2026-05-07 15:12 -1.91305 -29.97500 35900 ft 477 kts 198°
2026-05-07 15:12 -1.97514 -29.99936 35900 ft 477 kts 205°
2026-05-07 15:13 -2.03500 -30.02901 35902 ft 478 kts 207°
2026-05-07 15:13 -2.09433 -30.05919 35903 ft 478 kts 207°
2026-05-07 15:14 -2.15395 -30.08949 35905 ft 477 kts 207°
2026-05-07 15:14 -2.21327 -30.11959 35906 ft 477 kts 207°
2026-05-07 15:15 -2.27239 -30.14956 35905 ft 477 kts 207°
2026-05-07 15:15 -2.33211 -30.17983 35906 ft 478 kts 207°
2026-05-07 15:16 -2.39148 -30.20993 35904 ft 478 kts 207°
2026-05-07 15:16 -2.45112 -30.24018 35901 ft 478 kts 207°
2026-05-07 15:17 -2.51085 -30.27047 35898 ft 478 kts 207°
2026-05-07 15:17 -2.82686 -30.43077 35940 ft 477 kts 207°
2026-05-07 15:18 -3.13939 -30.58936 35936 ft 479 kts 207°
2026-05-07 15:18 -3.16908 -30.60446 36149 ft 479 kts 207°
2026-05-07 15:18 -3.19921 -30.61977 36428 ft 478 kts 207°
2026-05-07 15:19 -3.22894 -30.63488 36702 ft 477 kts 207°
2026-05-07 15:19 -3.25875 -30.65002 36957 ft 477 kts 207°
2026-05-07 15:19 -3.30533 -30.67367 37304 ft 476 kts 207°
2026-05-07 15:19 -3.36434 -30.70362 37784 ft 475 kts 207°
2026-05-07 15:20 -3.42320 -30.73351 37900 ft 475 kts 207°
2026-05-07 15:20 -3.48251 -30.76367 37900 ft 474 kts 207°
2026-05-07 15:20 -3.59963 -30.82321 37900 ft 475 kts 207°
2026-05-07 15:21 -3.71698 -30.88283 37899 ft 475 kts 208°
2026-05-07 15:21 -3.83492 -30.94280 37904 ft 472 kts 208°
2026-05-07 15:22 -3.95141 -31.00203 37915 ft 473 kts 208°
2026-05-07 15:22 -4.29138 -31.17491 37901 ft 475 kts 208°
2026-05-07 15:23 -4.35078 -31.20522 37909 ft 479 kts 208°
2026-05-07 15:23 -5.15501 -31.61559 37948 ft 485 kts 208°
2026-05-07 15:24 -5.42837 -31.75497 37940 ft 492 kts 208°
2026-05-07 15:24 -6.06194 -32.09242 37909 ft 489 kts 223°
2026-05-07 15:25 -6.08593 -32.11688 37919 ft 486 kts 234°
2026-05-07 15:25 -6.10416 -32.14509 37923 ft 482 kts 246°
2026-05-07 15:25 -6.17552 -32.25670 37933 ft 489 kts 229°
2026-05-07 15:26 -6.36653 -32.42795 37922 ft 489 kts 223°
2026-05-07 15:26 -6.56829 -32.59992 37921 ft 487 kts 223°
2026-05-07 15:27 -6.75804 -32.76183 37905 ft 485 kts 223°
2026-05-07 15:27 -6.95954 -32.93394 37919 ft 483 kts 224°
2026-05-07 15:28 -7.16071 -33.10600 37907 ft 482 kts 223°
2026-05-07 15:28 -7.36258 -33.27884 37923 ft 480 kts 224°
2026-05-07 15:29 -7.56460 -33.45203 37918 ft 480 kts 224°
2026-05-07 15:29 -7.76495 -33.62400 37926 ft 476 kts 224°
2026-05-07 15:30 -7.96343 -33.79458 37923 ft 472 kts 225°
2026-05-07 15:30 -8.15980 -33.96362 37932 ft 469 kts 225°
2026-05-07 15:31 -8.35499 -34.13181 37924 ft 465 kts 225°
2026-05-07 15:31 -8.54961 -34.29979 37941 ft 464 kts 225°
2026-05-07 15:32 -8.74255 -34.46649 37927 ft 463 kts 226°
2026-05-07 15:32 -8.93724 -34.63498 37944 ft 461 kts 226°
2026-05-07 15:33 -9.14092 -34.81150 37922 ft 459 kts 226°
2026-05-07 15:33 -9.38561 -35.02393 37944 ft 458 kts 226°
2026-05-07 15:34 -9.67376 -35.27464 37956 ft 456 kts 226°
2026-05-07 15:34 -9.94940 -35.51498 37951 ft 454 kts 226°
2026-05-07 15:35 -10.22466 -35.75558 37962 ft 450 kts 226°
2026-05-07 15:35 -10.49736 -35.99448 37959 ft 448 kts 227°
2026-05-07 15:36 -10.76670 -36.23100 37970 ft 443 kts 227°
2026-05-07 15:36 -11.04377 -36.47495 37964 ft 442 kts 227°
2026-05-07 15:37 -11.32038 -36.71912 37976 ft 442 kts 226°
2026-05-07 15:37 -11.54766 -36.92022 37973 ft 441 kts 226°
2026-05-07 15:38 -11.76196 -37.11023 37976 ft 441 kts 226°
2026-05-07 15:38 -12.02730 -37.34610 37984 ft 438 kts 225°
2026-05-07 15:39 -12.27274 -37.56483 37996 ft 438 kts 225°
2026-05-07 15:39 -12.50916 -37.77605 37990 ft 435 kts 225°
2026-05-07 15:40 -12.63858 -37.89187 37996 ft 434 kts 225°
2026-05-07 15:40 -12.68426 -37.93282 38003 ft 434 kts 224°
2026-05-07 15:41 -12.72976 -37.97358 38004 ft 433 kts 224°
2026-05-07 15:41 -12.77525 -38.01438 38005 ft 434 kts 224°
2026-05-07 15:42 -12.82094 -38.05538 38006 ft 435 kts 224°
2026-05-07 15:42 -12.86660 -38.09634 38004 ft 435 kts 224°
2026-05-07 15:43 -12.91248 -38.13754 38004 ft 434 kts 224°
2026-05-07 15:43 -12.95805 -38.17847 38001 ft 433 kts 224°
2026-05-07 15:44 -13.00385 -38.21964 37997 ft 434 kts 224°
2026-05-07 15:44 -13.05184 -38.25787 37998 ft 438 kts 217°
2026-05-07 15:45 -13.10527 -38.29003 37999 ft 442 kts 210°
2026-05-07 15:45 -13.16245 -38.31468 38007 ft 445 kts 202°
2026-05-07 15:46 -13.25291 -38.34059 38004 ft 447 kts 199°
2026-05-07 15:47 -13.31335 -38.35679 38013 ft 447 kts 198°
2026-05-07 15:47 -13.37376 -38.37299 38008 ft 448 kts 198°
2026-05-07 15:48 -13.43431 -38.38925 38015 ft 447 kts 198°
2026-05-07 15:48 -13.49500 -38.40556 38007 ft 448 kts 198°
2026-05-07 15:49 -13.55564 -38.42188 38016 ft 448 kts 198°
2026-05-07 15:49 -13.61647 -38.43824 38007 ft 448 kts 198°
2026-05-07 15:50 -13.67702 -38.45454 38012 ft 448 kts 198°
2026-05-07 15:50 -13.73778 -38.47089 38008 ft 448 kts 198°
2026-05-07 15:51 -13.79859 -38.48725 38011 ft 448 kts 197°
2026-05-07 15:51 -13.85925 -38.50359 38014 ft 448 kts 197°
2026-05-07 15:52 -13.91944 -38.52116 38004 ft 448 kts 200°
2026-05-07 15:52 -13.97926 -38.54047 38010 ft 447 kts 200°
2026-05-07 15:53 -14.03903 -38.55979 38007 ft 448 kts 200°
2026-05-07 15:53 -14.09907 -38.57916 38009 ft 448 kts 199°
2026-05-07 15:54 -14.15878 -38.59840 38007 ft 448 kts 200°
2026-05-07 15:54 -14.21840 -38.61762 38008 ft 448 kts 199°
2026-05-07 15:55 -14.27822 -38.63693 38011 ft 447 kts 199°
2026-05-07 15:55 -14.33795 -38.65620 38012 ft 447 kts 199°
2026-05-07 15:56 -14.39794 -38.67556 38011 ft 447 kts 199°
2026-05-07 15:56 -14.45792 -38.69490 38009 ft 447 kts 199°
2026-05-07 15:57 -14.51746 -38.71421 38013 ft 447 kts 201°
2026-05-07 15:57 -14.57479 -38.74072 38017 ft 445 kts 211°
2026-05-07 15:58 -14.62562 -38.77781 38018 ft 444 kts 221°
2026-05-07 15:58 -14.66857 -38.82413 38022 ft 444 kts 232°
2026-05-07 15:59 -14.70462 -38.87630 38026 ft 444 kts 235°
2026-05-07 15:59 -14.74001 -38.92934 38030 ft 444 kts 235°
2026-05-07 16:00 -14.77533 -38.98218 38035 ft 445 kts 234°
2026-05-07 16:00 -14.81300 -39.03382 38034 ft 445 kts 230°
2026-05-07 16:01 -14.85529 -39.08114 38039 ft 444 kts 225°
2026-05-07 16:01 -14.89933 -39.12610 38042 ft 444 kts 224°
2026-05-07 16:02 -14.94351 -39.17109 38043 ft 443 kts 224°
2026-05-07 16:02 -14.98734 -39.21576 38044 ft 444 kts 224°
2026-05-07 16:03 -15.03158 -39.26091 38046 ft 445 kts 224°
2026-05-07 16:03 -15.07573 -39.30602 38044 ft 445 kts 224°
2026-05-07 16:04 -15.11980 -39.35106 38046 ft 445 kts 224°
2026-05-07 16:04 -15.16407 -39.39628 38048 ft 444 kts 224°
2026-05-07 16:05 -15.20831 -39.44151 38051 ft 444 kts 224°
2026-05-07 16:05 -15.25224 -39.48648 38053 ft 443 kts 224°
2026-05-07 16:06 -15.29638 -39.53170 38055 ft 442 kts 224°
2026-05-07 16:06 -15.34026 -39.57676 38060 ft 443 kts 224°
2026-05-07 16:07 -15.38380 -39.62146 38055 ft 442 kts 224°
2026-05-07 16:07 -15.42783 -39.66667 38049 ft 443 kts 224°
2026-05-07 16:08 -15.47149 -39.71151 38049 ft 443 kts 224°
2026-05-07 16:08 -15.51554 -39.75675 38046 ft 443 kts 224°
2026-05-07 16:09 -15.55966 -39.80212 38053 ft 442 kts 224°
2026-05-07 16:09 -15.60335 -39.84710 38053 ft 442 kts 223°
2026-05-07 16:10 -15.64742 -39.89247 38058 ft 442 kts 223°
2026-05-07 16:10 -15.69142 -39.93777 38067 ft 443 kts 223°
2026-05-07 16:11 -15.73552 -39.98325 38081 ft 443 kts 223°
2026-05-07 16:11 -15.77955 -40.02867 38082 ft 443 kts 223°
2026-05-07 16:12 -15.82356 -40.07410 38077 ft 441 kts 223°
2026-05-07 16:12 -15.86729 -40.11927 38072 ft 441 kts 223°
2026-05-07 16:13 -15.91104 -40.16448 38065 ft 439 kts 223°
2026-05-07 16:13 -15.95471 -40.20963 38063 ft 440 kts 223°
2026-05-07 16:14 -15.99814 -40.25455 38068 ft 440 kts 223°
2026-05-07 16:14 -16.04169 -40.29962 38074 ft 440 kts 223°
2026-05-07 16:15 -16.08518 -40.34467 38079 ft 440 kts 223°
2026-05-07 16:15 -16.12869 -40.38979 38086 ft 439 kts 223°
2026-05-07 16:16 -16.17208 -40.43480 38081 ft 438 kts 222°
2026-05-07 16:16 -16.21565 -40.48005 38079 ft 437 kts 223°
2026-05-07 16:17 -16.25877 -40.52485 38077 ft 437 kts 222°
2026-05-07 16:17 -16.30217 -40.56997 38084 ft 437 kts 222°
2026-05-07 16:18 -16.34525 -40.61478 38087 ft 437 kts 222°
2026-05-07 16:18 -16.38874 -40.66005 38098 ft 438 kts 222°
2026-05-07 16:19 -16.43189 -40.70500 38105 ft 437 kts 222°
2026-05-07 16:19 -16.47533 -40.75027 38122 ft 437 kts 222°
2026-05-07 16:20 -16.51839 -40.79520 38121 ft 437 kts 222°
2026-05-07 16:20 -16.56157 -40.84027 38136 ft 436 kts 222°
2026-05-07 16:21 -16.60454 -40.88516 38120 ft 435 kts 222°
2026-05-07 16:21 -16.64753 -40.93007 38128 ft 435 kts 222°
2026-05-07 16:22 -16.69038 -40.97488 38114 ft 435 kts 222°
2026-05-07 16:22 -16.73323 -41.01973 38100 ft 432 kts 222°
2026-05-07 16:23 -16.77560 -41.06410 38107 ft 428 kts 222°
2026-05-07 16:23 -16.81761 -41.10813 38107 ft 427 kts 222°
2026-05-07 16:24 -16.85990 -41.15248 38105 ft 428 kts 221°
2026-05-07 16:24 -16.90193 -41.19656 38099 ft 427 kts 222°
2026-05-07 16:25 -16.94398 -41.24070 38102 ft 427 kts 222°
2026-05-07 16:25 -16.98608 -41.28494 38104 ft 426 kts 222°
2026-05-07 16:26 -17.02806 -41.32908 38106 ft 426 kts 221°
2026-05-07 16:26 -17.06986 -41.37303 38111 ft 425 kts 221°
2026-05-07 16:27 -17.11189 -41.41725 38115 ft 425 kts 221°
2026-05-07 16:27 -17.15371 -41.46128 38116 ft 426 kts 221°
2026-05-07 16:28 -17.19537 -41.50547 38113 ft 426 kts 222°
2026-05-07 16:28 -17.23697 -41.54974 38117 ft 426 kts 221°
2026-05-07 16:29 -17.27869 -41.59410 38119 ft 425 kts 221°
2026-05-07 16:29 -17.32040 -41.63849 38116 ft 424 kts 221°
2026-05-07 16:30 -17.36221 -41.68299 38111 ft 425 kts 221°
2026-05-07 16:30 -17.40371 -41.72718 38112 ft 424 kts 221°
2026-05-07 16:31 -17.44531 -41.77150 38111 ft 424 kts 221°
2026-05-07 16:31 -17.48673 -41.81568 38110 ft 424 kts 222°
2026-05-07 16:32 -17.52810 -41.85980 38114 ft 424 kts 222°
2026-05-07 16:32 -17.56965 -41.90416 38117 ft 423 kts 221°
2026-05-07 16:33 -17.61090 -41.94823 38121 ft 423 kts 221°
2026-05-07 16:33 -17.65318 -41.99343 38129 ft 422 kts 221°
2026-05-07 16:34 -17.69456 -42.03768 38136 ft 423 kts 221°
2026-05-07 16:34 -17.73574 -42.08174 38136 ft 421 kts 221°
2026-05-07 16:35 -17.77677 -42.12556 38133 ft 421 kts 221°
2026-05-07 16:35 -17.83450 -42.18695 38130 ft 420 kts 221°
2026-05-07 16:36 -17.99988 -42.36298 38116 ft 420 kts 221°
2026-05-07 16:36 -18.19392 -42.57017 38133 ft 417 kts 221°
2026-05-07 16:37 -18.39303 -42.78347 38139 ft 416 kts 222°